GFSFLT2_prec_precacc_006.txt.gz
Total_Precipitation_Accumulation
0.00 0.00 0.00 0.00 0.00 0.00 0.00 0.00 0.00 0.01 0.00 0.00 0.00 0.00 0.00 0.01 0.03 0.03 0.02 0.03 0.03 0.04 0.06 0.06 0.06 0.05 0.05
0.00 0.00 0.00 0.00 0.00 0.00 0.00 0.00 0.00 0.00 0.00 0.00 0.00 0.00 0.00 0.01 0.02 0.03 0.06 0.08 0.09 0.09 0.09 0.07 0.06 0.06 0.06
0.00 0.00 0.00 0.01 0.01 0.00 0.00 0.00 0.00 0.00 0.00 0.00 0.00 0.00 0.00 0.02 0.03 0.05 0.05 0.03 0.03 0.02 0.02 0.02 0.02 0.03 0.04
0.04 0.02 0.01 0.02 0.01 0.00 0.00 0.00 0.00 0.00 0.00 0.00 0.00 0.00 0.00 0.00 0.00 0.00 0.00 0.00 0.00 0.00 0.00 0.01 0.02 0.02 0.02
0.05 0.07 0.04 0.00 0.00 0.00 0.00 0.00 0.01 0.00 0.00 0.00 0.00 0.00 0.00 0.00 0.00 0.00 0.00 0.00 0.01 0.04 0.06 0.07 0.07 0.07 0.07
0.09 0.01 0.00 0.00 0.00 0.01 0.03 0.02 0.01 0.00 0.00 0.00 0.00 0.00 0.00 0.00 0.00 0.01 0.01 0.01 0.01 0.03 0.03 0.03 0.03 0.04 0.05
0.00 0.00 0.00 0.02 0.05 0.03 0.01 0.02 0.01 0.00 0.01 0.01 0.00 0.00 0.00 0.00 0.00 0.00 0.00 0.01 0.01 0.02 0.04 0.04 0.03 0.03 0.02
0.00 0.01 0.02 0.02 0.00 0.00 0.02 0.03 0.01 0.00 0.00 0.02 0.00 0.00 0.00 0.00 0.00 0.00 0.00 0.01 0.01 0.02 0.04 0.06 0.09 0.11 0.11
0.01 0.00 0.00 0.00 0.00 0.05 0.05 0.03 0.02 0.00 0.00 0.00 0.00 0.00 0.00 0.00 0.00 0.00 0.00 0.00 0.00 0.01 0.02 0.02 0.03 0.04 0.05
0.00 0.00 0.00 0.00 0.00 0.01 0.05 0.12 0.04 0.03 0.00 0.04 0.02 0.01 0.06 0.00 0.00 0.00 0.00 0.00 0.00 0.00 0.01 0.02 0.03 0.04 0.05
0.00 0.00 0.00 0.00 0.00 0.00 0.01 0.10 0.15 0.09 0.00 0.11 0.11 0.01 0.04 0.01 0.00 0.00 0.00 0.00 0.00 0.00 0.01 0.03 0.08 0.11 0.12
0.00 0.00 0.00 0.00 0.00 0.00 0.00 0.02 0.06 0.14 0.05 0.07 0.17 0.07 0.09 0.04 0.00 0.00 0.00 0.00 0.00 0.01 0.02 0.07 0.14 0.19 0.17
0.00 0.00 0.00 0.00 0.00 0.00 0.00 0.00 0.00 0.01 0.03 0.02 0.09 0.06 0.07 0.08 0.05 0.01 0.03 0.01 0.01 0.07 0.11 0.15 0.16 0.20 0.23
0.01 0.00 0.00 0.00 0.00 0.00 0.01 0.00 0.02 0.00 0.00 0.01 0.05 0.08 0.08 0.03 0.10 0.07 0.05 0.12 0.05 0.04 0.12 0.10 0.12 0.18 0.21
0.00 0.00 0.00 0.00 0.00 0.00 0.02 0.03 0.02 0.02 0.01 0.00 0.00 0.01 0.03 0.05 0.07 0.07 0.07 0.07 0.14 0.18 0.12 0.07 0.06 0.09 0.09
0.00 0.01 0.02 0.01 0.01 0.00 0.01 0.02 0.04 0.02 0.02 0.01 0.01 0.01 0.00 0.01 0.06 0.11 0.13 0.18 0.19 0.17 0.10 0.12 0.09 0.05 0.05
0.01 0.03 0.05 0.02 0.01 0.01 0.01 0.01 0.01 0.02 0.02 0.03 0.02 0.03 0.02 0.03 0.03 0.16 0.22 0.20 0.16 0.17 0.16 0.19 0.24 0.23 0.17

GFSFLT2_prec_precacc_012.txt.gz
Total_Precipitation_Accumulation
0.00 0.00 0.00 0.00 0.00 0.00 0.00 0.00 0.00 0.01 0.01 0.00 0.00 0.00 0.01 0.01 0.03 0.04 0.05 0.08 0.10 0.12 0.15 0.16 0.16 0.16 0.16
0.00 0.00 0.00 0.00 0.00 0.00 0.00 0.00 0.00 0.00 0.00 0.00 0.00 0.00 0.01 0.01 0.03 0.06 0.10 0.13 0.15 0.15 0.15 0.14 0.13 0.13 0.14
0.00 0.00 0.00 0.01 0.01 0.00 0.00 0.00 0.00 0.00 0.00 0.00 0.00 0.00 0.00 0.02 0.05 0.06 0.06 0.05 0.05 0.05 0.05 0.05 0.05 0.07 0.08
0.07 0.05 0.03 0.02 0.01 0.00 0.00 0.00 0.00 0.00 0.00 0.00 0.00 0.00 0.00 0.00 0.00 0.00 0.00 0.00 0.00 0.00 0.00 0.02 0.03 0.03 0.02
0.10 0.08 0.04 0.00 0.00 0.00 0.00 0.01 0.01 0.00 0.00 0.00 0.00 0.00 0.00 0.00 0.00 0.00 0.00 0.01 0.02 0.05 0.08 0.10 0.10 0.11 0.10
0.10 0.02 0.00 0.00 0.00 0.02 0.05 0.04 0.02 0.00 0.00 0.00 0.00 0.00 0.00 0.00 0.00 0.01 0.01 0.01 0.02 0.04 0.06 0.07 0.07 0.09 0.10
0.00 0.00 0.01 0.03 0.10 0.06 0.03 0.04 0.03 0.00 0.01 0.02 0.00 0.00 0.00 0.00 0.00 0.00 0.01 0.01 0.01 0.04 0.07 0.07 0.06 0.06 0.05
0.00 0.01 0.04 0.03 0.01 0.01 0.04 0.05 0.02 0.00 0.00 0.03 0.00 0.00 0.00 0.00 0.00 0.00 0.00 0.01 0.02 0.04 0.06 0.08 0.12 0.15 0.15
0.02 0.01 0.00 0.00 0.00 0.06 0.07 0.06 0.03 0.00 0.00 0.01 0.00 0.00 0.00 0.00 0.00 0.00 0.00 0.01 0.01 0.02 0.03 0.04 0.04 0.05 0.06
0.00 0.00 0.00 0.00 0.00 0.01 0.06 0.19 0.07 0.06 0.00 0.07 0.04 0.03 0.11 0.01 0.00 0.00 0.00 0.00 0.00 0.01 0.02 0.03 0.04 0.06 0.09
0.00 0.00 0.00 0.00 0.00 0.00 0.02 0.17 0.26 0.15 0.00 0.19 0.18 0.02 0.09 0.03 0.00 0.00 0.00 0.00 0.00 0.00 0.01 0.04 0.11 0.17 0.23
0.00 0.00 0.00 0.00 0.00 0.00 0.00 0.02 0.08 0.22 0.08 0.11 0.28 0.12 0.16 0.07 0.01 0.00 0.00 0.00 0.00 0.02 0.03 0.08 0.16 0.23 0.25
0.01 0.00 0.00 0.00 0.00 0.00 0.00 0.00 0.00 0.01 0.03 0.03 0.13 0.11 0.14 0.16 0.11 0.02 0.07 0.02 0.01 0.08 0.14 0.20 0.20 0.22 0.27
0.01 0.00 0.00 0.00 0.00 0.00 0.02 0.01 0.03 0.00 0.00 0.01 0.06 0.15 0.15 0.06 0.18 0.12 0.06 0.18 0.08 0.09 0.22 0.16 0.15 0.21 0.28
0.01 0.01 0.00 0.00 0.00 0.00 0.03 0.04 0.03 0.02 0.01 0.00 0.00 0.02 0.05 0.07 0.08 0.08 0.08 0.09 0.19 0.31 0.26 0.16 0.09 0.22 0.25
0.01 0.01 0.03 0.02 0.03 0.01 0.01 0.03 0.05 0.02 0.03 0.01 0.01 0.01 0.00 0.01 0.06 0.13 0.15 0.19 0.20 0.23 0.20 0.29 0.16 0.16 0.13
0.02 0.04 0.08 0.04 0.01 0.02 0.01 0.02 0.01 0.02 0.03 0.03 0.04 0.06 0.05 0.03 0.03 0.17 0.29 0.23 0.18 0.20 0.27 0.37 0.44 0.38 0.29

GFSFLT2_prec_precacc_018.txt.gz
Total_Precipitation_Accumulation
0.00 0.00 0.00 0.00 0.00 0.00 0.00 0.00 0.00 0.01 0.01 0.00 0.00 0.00 0.01 0.01 0.03 0.04 0.05 0.09 0.11 0.14 0.17 0.22 0.25 0.24 0.25
0.00 0.00 0.00 0.00 0.00 0.00 0.00 0.00 0.00 0.00 0.00 0.00 0.00 0.00 0.01 0.02 0.04 0.06 0.11 0.14 0.16 0.17 0.18 0.18 0.18 0.19 0.21
0.00 0.00 0.00 0.01 0.02 0.00 0.00 0.00 0.00 0.00 0.00 0.00 0.00 0.00 0.00 0.02 0.05 0.07 0.06 0.05 0.05 0.05 0.06 0.06 0.07 0.09 0.10
0.07 0.05 0.04 0.03 0.01 0.00 0.00 0.00 0.00 0.00 0.00 0.00 0.00 0.00 0.00 0.00 0.00 0.00 0.00 0.00 0.00 0.00 0.01 0.03 0.04 0.05 0.05
0.12 0.10 0.05 0.00 0.00 0.00 0.00 0.01 0.01 0.00 0.00 0.00 0.00 0.00 0.00 0.00 0.00 0.00 0.00 0.01 0.02 0.05 0.09 0.12 0.12 0.13 0.12
0.14 0.04 0.00 0.00 0.00 0.02 0.06 0.05 0.04 0.00 0.00 0.00 0.00 0.00 0.00 0.00 0.00 0.01 0.01 0.01 0.02 0.05 0.07 0.09 0.10 0.11 0.12
0.01 0.00 0.01 0.03 0.10 0.08 0.05 0.06 0.04 0.00 0.02 0.02 0.00 0.00 0.00 0.00 0.00 0.00 0.01 0.01 0.02 0.04 0.07 0.08 0.08 0.08 0.08
0.00 0.01 0.04 0.04 0.04 0.07 0.06 0.06 0.02 0.00 0.00 0.03 0.00 0.00 0.00 0.00 0.00 0.00 0.00 0.01 0.02 0.04 0.07 0.10 0.14 0.17 0.17
0.02 0.01 0.01 0.00 0.00 0.06 0.07 0.07 0.04 0.00 0.00 0.01 0.00 0.00 0.00 0.00 0.00 0.00 0.00 0.01 0.01 0.02 0.04 0.05 0.06 0.07 0.08
0.00 0.00 0.00 0.00 0.00 0.01 0.07 0.23 0.09 0.08 0.00 0.10 0.05 0.04 0.14 0.01 0.00 0.00 0.00 0.00 0.00 0.01 0.02 0.03 0.05 0.09 0.12
0.00 0.00 0.00 0.00 0.00 0.00 0.02 0.21 0.34 0.19 0.00 0.25 0.26 0.03 0.13 0.04 0.00 0.00 0.00 0.00 0.00 0.00 0.01 0.04 0.11 0.21 0.35
0.00 0.00 0.00 0.00 0.00 0.00 0.00 0.02 0.09 0.25 0.09 0.13 0.40 0.16 0.24 0.11 0.01 0.00 0.00 0.00 0.00 0.02 0.03 0.08 0.16 0.24 0.28
0.01 0.00 0.00 0.00 0.00 0.00 0.00 0.00 0.01 0.01 0.03 0.03 0.16 0.16 0.22 0.23 0.14 0.02 0.07 0.02 0.01 0.08 0.14 0.22 0.25 0.27 0.32
0.01 0.00 0.00 0.00 0.00 0.00 0.02 0.01 0.04 0.00 0.00 0.01 0.06 0.17 0.23 0.09 0.21 0.14 0.06 0.18 0.08 0.09 0.22 0.17 0.16 0.23 0.30
0.02 0.02 0.01 0.00 0.00 0.00 0.04 0.06 0.05 0.03 0.01 0.00 0.00 0.02 0.06 0.08 0.11 0.09 0.08 0.09 0.19 0.31 0.27 0.18 0.10 0.24 0.28
0.02 0.03 0.05 0.03 0.03 0.01 0.02 0.04 0.07 0.03 0.03 0.02 0.01 0.03 0.01 0.01 0.06 0.14 0.16 0.19 0.20 0.23 0.21 0.36 0.19 0.16 0.14
0.03 0.05 0.10 0.06 0.02 0.03 0.02 0.03 0.02 0.02 0.03 0.03 0.06 0.12 0.12 0.04 0.03 0.17 0.31 0.25 0.19 0.21 0.28 0.40 0.50 0.40 0.32

GFSFLT2_prec_precacc_021.txt.gz
Total_Precipitation_Accumulation
0.00 0.00 0.00 0.00 0.00 0.00 0.00 0.00 0.00 0.01 0.01 0.00 0.00 0.00 0.01 0.01 0.03 0.04 0.06 0.10 0.12 0.15 0.20 0.26 0.30 0.30 0.30
0.00 0.00 0.00 0.00 0.00 0.00 0.00 0.00 0.00 0.00 0.00 0.00 0.00 0.00 0.01 0.02 0.04 0.06 0.11 0.15 0.18 0.19 0.19 0.19 0.19 0.20 0.24
0.00 0.00 0.00 0.01 0.02 0.00 0.00 0.00 0.00 0.00 0.00 0.00 0.00 0.00 0.00 0.02 0.05 0.07 0.06 0.05 0.05 0.05 0.06 0.07 0.07 0.10 0.11
0.07 0.05 0.04 0.03 0.01 0.00 0.00 0.00 0.00 0.00 0.00 0.00 0.00 0.00 0.00 0.00 0.00 0.00 0.00 0.00 0.00 0.00 0.01 0.03 0.05 0.06 0.06
0.12 0.10 0.06 0.00 0.00 0.00 0.00 0.01 0.01 0.00 0.00 0.00 0.00 0.00 0.00 0.00 0.00 0.00 0.00 0.01 0.02 0.06 0.09 0.12 0.13 0.14 0.14
0.15 0.04 0.00 0.00 0.00 0.02 0.06 0.05 0.04 0.00 0.00 0.00 0.00 0.00 0.00 0.00 0.00 0.01 0.01 0.01 0.02 0.05 0.08 0.10 0.10 0.11 0.13
0.01 0.00 0.01 0.03 0.10 0.09 0.06 0.08 0.05 0.00 0.02 0.02 0.00 0.00 0.00 0.00 0.00 0.00 0.01 0.01 0.02 0.04 0.07 0.09 0.08 0.08 0.08
0.00 0.01 0.04 0.04 0.05 0.10 0.07 0.06 0.02 0.00 0.00 0.04 0.00 0.00 0.00 0.00 0.00 0.00 0.00 0.01 0.02 0.04 0.07 0.10 0.14 0.17 0.18
0.02 0.01 0.01 0.00 0.00 0.06 0.07 0.07 0.04 0.00 0.00 0.01 0.00 0.00 0.00 0.00 0.00 0.00 0.00 0.01 0.01 0.02 0.04 0.05 0.06 0.07 0.08
0.00 0.00 0.00 0.00 0.00 0.01 0.07 0.24 0.11 0.09 0.00 0.12 0.06 0.04 0.16 0.01 0.00 0.00 0.00 0.00 0.00 0.01 0.02 0.03 0.05 0.09 0.12
0.00 0.00 0.00 0.00 0.00 0.00 0.02 0.21 0.36 0.21 0.00 0.28 0.31 0.04 0.16 0.05 0.00 0.00 0.00 0.00 0.00 0.00 0.01 0.04 0.11 0.21 0.35
0.00 0.00 0.00 0.00 0.00 0.00 0.00 0.02 0.09 0.26 0.09 0.14 0.46 0.18 0.28 0.13 0.01 0.00 0.00 0.00 0.00 0.02 0.03 0.08 0.16 0.24 0.28
0.01 0.00 0.00 0.00 0.00 0.00 0.00 0.00 0.01 0.01 0.03 0.03 0.17 0.17 0.25 0.26 0.16 0.03 0.07 0.02 0.01 0.08 0.14 0.22 0.25 0.27 0.32
0.01 0.00 0.00 0.00 0.00 0.00 0.03 0.01 0.04 0.00 0.00 0.01 0.06 0.17 0.26 0.11 0.23 0.16 0.06 0.18 0.08 0.09 0.22 0.17 0.16 0.23 0.30
0.02 0.02 0.01 0.00 0.00 0.00 0.04 0.07 0.07 0.03 0.01 0.00 0.00 0.02 0.06 0.09 0.13 0.09 0.08 0.09 0.19 0.31 0.27 0.19 0.10 0.24 0.28
0.02 0.03 0.05 0.03 0.04 0.02 0.02 0.05 0.08 0.03 0.04 0.02 0.01 0.04 0.01 0.01 0.07 0.15 0.17 0.19 0.20 0.23 0.21 0.37 0.20 0.16 0.14
0.04 0.05 0.11 0.07 0.02 0.03 0.02 0.03 0.02 0.02 0.03 0.03 0.07 0.16 0.16 0.05 0.03 0.17 0.37 0.28 0.20 0.22 0.28 0.40 0.51 0.40 0.32

GFSFLT2_prec_precacc_027.txt.gz
Total_Precipitation_Accumulation
0.00 0.00 0.00 0.00 0.00 0.00 0.00 0.00 0.00 0.01 0.01 0.00 0.00 0.00 0.01 0.01 0.03 0.04 0.06 0.10 0.13 0.17 0.23 0.32 0.36 0.36 0.37
0.00 0.00 0.00 0.00 0.00 0.00 0.00 0.00 0.00 0.00 0.00 0.00 0.00 0.00 0.01 0.02 0.04 0.07 0.11 0.15 0.18 0.20 0.20 0.20 0.20 0.22 0.27
0.00 0.00 0.00 0.01 0.02 0.00 0.00 0.00 0.00 0.00 0.00 0.00 0.00 0.00 0.01 0.03 0.05 0.07 0.07 0.05 0.06 0.05 0.06 0.07 0.08 0.11 0.13
0.07 0.05 0.04 0.03 0.01 0.00 0.00 0.00 0.00 0.00 0.00 0.00 0.00 0.00 0.00 0.00 0.00 0.00 0.00 0.00 0.01 0.01 0.02 0.04 0.07 0.08 0.08
0.12 0.10 0.06 0.00 0.00 0.00 0.00 0.01 0.01 0.00 0.00 0.00 0.00 0.00 0.00 0.00 0.00 0.00 0.00 0.01 0.03 0.06 0.10 0.13 0.15 0.17 0.17
0.15 0.04 0.00 0.00 0.00 0.02 0.06 0.06 0.05 0.00 0.00 0.00 0.00 0.00 0.00 0.00 0.00 0.01 0.01 0.02 0.03 0.05 0.08 0.11 0.12 0.14 0.16
0.01 0.00 0.01 0.03 0.10 0.09 0.07 0.10 0.05 0.00 0.02 0.02 0.00 0.00 0.00 0.00 0.00 0.00 0.01 0.01 0.02 0.05 0.08 0.09 0.09 0.10 0.11
0.00 0.01 0.04 0.04 0.06 0.15 0.08 0.06 0.02 0.00 0.00 0.04 0.00 0.00 0.00 0.00 0.00 0.00 0.00 0.01 0.02 0.04 0.07 0.10 0.14 0.17 0.18
0.02 0.02 0.01 0.00 0.00 0.06 0.07 0.07 0.05 0.00 0.00 0.01 0.00 0.00 0.00 0.00 0.00 0.00 0.00 0.01 0.01 0.02 0.04 0.05 0.06 0.08 0.09
0.00 0.00 0.00 0.00 0.00 0.01 0.07 0.24 0.12 0.11 0.00 0.13 0.07 0.04 0.18 0.01 0.00 0.00 0.00 0.00 0.00 0.01 0.02 0.03 0.06 0.09 0.12
0.00 0.00 0.00 0.00 0.00 0.00 0.02 0.21 0.38 0.24 0.00 0.33 0.38 0.05 0.20 0.06 0.00 0.00 0.00 0.00 0.00 0.00 0.01 0.04 0.11 0.21 0.35
0.00 0.00 0.00 0.00 0.00 0.00 0.00 0.02 0.09 0.27 0.09 0.16 0.59 0.20 0.34 0.17 0.02 0.00 0.00 0.00 0.00 0.02 0.03 0.08 0.16 0.24 0.29
0.01 0.00 0.00 0.00 0.00 0.00 0.00 0.00 0.01 0.01 0.03 0.03 0.23 0.22 0.31 0.32 0.18 0.03 0.07 0.02 0.01 0.08 0.14 0.22 0.25 0.27 0.32
0.01 0.00 0.00 0.00 0.00 0.00 0.03 0.01 0.05 0.00 0.00 0.01 0.06 0.21 0.32 0.14 0.26 0.18 0.06 0.19 0.08 0.09 0.22 0.17 0.16 0.23 0.30
0.02 0.02 0.01 0.00 0.00 0.00 0.04 0.08 0.09 0.03 0.02 0.00 0.00 0.02 0.07 0.11 0.21 0.10 0.08 0.09 0.19 0.31 0.28 0.21 0.10 0.24 0.28
0.03 0.03 0.06 0.04 0.04 0.02 0.02 0.06 0.09 0.03 0.04 0.02 0.01 0.05 0.02 0.01 0.08 0.19 0.22 0.19 0.20 0.23 0.22 0.42 0.22 0.16 0.14
0.04 0.06 0.12 0.08 0.03 0.03 0.02 0.04 0.03 0.02 0.03 0.04 0.10 0.23 0.23 0.06 0.03 0.18 0.52 0.37 0.21 0.22 0.28 0.41 0.53 0.40 0.32

GFSFLT2_prec_precacc_030.txt.gz
Total_Precipitation_Accumulation
0.00 0.00 0.00 0.00 0.00 0.00 0.00 0.00 0.00 0.01 0.01 0.00 0.00 0.00 0.01 0.01 0.03 0.04 0.06 0.10 0.14 0.18 0.24 0.33 0.38 0.38 0.39
0.00 0.00 0.00 0.00 0.00 0.00 0.00 0.00 0.00 0.00 0.00 0.00 0.00 0.00 0.01 0.02 0.04 0.07 0.12 0.16 0.19 0.20 0.21 0.20 0.20 0.22 0.27
0.00 0.00 0.00 0.01 0.02 0.00 0.00 0.00 0.00 0.00 0.00 0.00 0.00 0.00 0.01 0.03 0.05 0.07 0.07 0.05 0.06 0.05 0.06 0.07 0.08 0.11 0.13
0.07 0.05 0.04 0.03 0.01 0.00 0.00 0.00 0.00 0.00 0.00 0.00 0.00 0.00 0.00 0.00 0.00 0.00 0.00 0.00 0.01 0.01 0.02 0.04 0.07 0.08 0.09
0.12 0.10 0.06 0.00 0.00 0.00 0.00 0.01 0.01 0.00 0.00 0.00 0.00 0.00 0.00 0.00 0.00 0.00 0.00 0.01 0.03 0.06 0.10 0.14 0.15 0.17 0.17
0.15 0.04 0.00 0.00 0.00 0.02 0.06 0.06 0.05 0.00 0.00 0.00 0.00 0.00 0.00 0.00 0.00 0.01 0.01 0.02 0.03 0.06 0.09 0.11 0.12 0.14 0.17
0.01 0.00 0.01 0.03 0.10 0.10 0.07 0.10 0.05 0.00 0.02 0.02 0.00 0.00 0.00 0.00 0.00 0.00 0.01 0.01 0.02 0.05 0.08 0.09 0.09 0.10 0.12
0.00 0.01 0.04 0.04 0.07 0.16 0.09 0.06 0.02 0.00 0.00 0.04 0.00 0.00 0.00 0.00 0.00 0.00 0.00 0.01 0.02 0.04 0.08 0.11 0.14 0.17 0.19
0.02 0.02 0.01 0.01 0.00 0.06 0.07 0.07 0.05 0.00 0.00 0.01 0.00 0.00 0.00 0.00 0.00 0.00 0.00 0.01 0.01 0.02 0.04 0.05 0.06 0.08 0.09
0.00 0.00 0.00 0.00 0.00 0.01 0.07 0.25 0.13 0.12 0.00 0.13 0.07 0.05 0.19 0.01 0.00 0.00 0.00 0.00 0.00 0.01 0.02 0.03 0.06 0.09 0.12
0.00 0.00 0.00 0.00 0.00 0.00 0.02 0.21 0.39 0.25 0.00 0.35 0.41 0.05 0.22 0.07 0.00 0.00 0.00 0.00 0.00 0.00 0.01 0.04 0.11 0.22 0.35
0.00 0.00 0.00 0.00 0.00 0.00 0.00 0.02 0.10 0.27 0.09 0.17 0.65 0.21 0.37 0.19 0.02 0.00 0.00 0.00 0.00 0.02 0.03 0.08 0.16 0.24 0.29
0.01 0.00 0.00 0.00 0.00 0.00 0.00 0.00 0.01 0.01 0.03 0.03 0.24 0.23 0.34 0.34 0.19 0.03 0.07 0.02 0.01 0.08 0.14 0.22 0.25 0.27 0.32
0.01 0.00 0.00 0.00 0.00 0.00 0.03 0.01 0.05 0.00 0.00 0.01 0.06 0.21 0.34 0.15 0.28 0.19 0.06 0.19 0.08 0.09 0.22 0.17 0.16 0.23 0.30
0.02 0.02 0.01 0.00 0.00 0.00 0.04 0.08 0.09 0.03 0.02 0.00 0.00 0.02 0.07 0.12 0.24 0.11 0.08 0.09 0.19 0.31 0.28 0.21 0.10 0.24 0.28
0.03 0.04 0.06 0.04 0.04 0.02 0.02 0.07 0.10 0.03 0.04 0.02 0.01 0.05 0.02 0.01 0.09 0.22 0.25 0.19 0.20 0.23 0.22 0.45 0.23 0.16 0.14
0.04 0.06 0.12 0.09 0.03 0.04 0.03 0.04 0.03 0.03 0.03 0.04 0.11 0.25 0.26 0.07 0.03 0.19 0.59 0.43 0.22 0.23 0.28 0.42 0.54 0.41 0.32

GFSFLT2_prec_precacc_033.txt.gz
Total_Precipitation_Accumulation
0.00 0.00 0.00 0.00 0.00 0.00 0.00 0.00 0.00 0.01 0.01 0.00 0.00 0.00 0.01 0.01 0.03 0.04 0.06 0.10 0.14 0.18 0.25 0.34 0.40 0.41 0.42
0.00 0.00 0.00 0.00 0.00 0.00 0.00 0.00 0.00 0.00 0.00 0.00 0.00 0.00 0.01 0.02 0.04 0.07 0.12 0.16 0.19 0.20 0.21 0.21 0.21 0.23 0.28
0.00 0.00 0.00 0.01 0.02 0.00 0.00 0.00 0.00 0.00 0.00 0.00 0.00 0.00 0.01 0.03 0.05 0.07 0.07 0.05 0.06 0.05 0.06 0.07 0.08 0.11 0.13
0.07 0.05 0.04 0.03 0.01 0.00 0.00 0.00 0.00 0.00 0.00 0.00 0.00 0.00 0.00 0.00 0.00 0.00 0.00 0.00 0.01 0.01 0.03 0.05 0.07 0.09 0.09
0.12 0.10 0.06 0.00 0.00 0.00 0.00 0.01 0.01 0.00 0.00 0.00 0.00 0.00 0.00 0.00 0.00 0.00 0.00 0.01 0.03 0.07 0.11 0.14 0.16 0.18 0.19
0.15 0.04 0.00 0.00 0.00 0.02 0.06 0.06 0.06 0.00 0.00 0.00 0.00 0.00 0.00 0.00 0.00 0.01 0.01 0.02 0.03 0.06 0.09 0.11 0.13 0.15 0.18
0.01 0.00 0.01 0.03 0.10 0.10 0.07 0.10 0.06 0.00 0.02 0.02 0.00 0.00 0.00 0.00 0.00 0.00 0.01 0.01 0.02 0.05 0.08 0.10 0.10 0.11 0.12
0.00 0.01 0.04 0.04 0.07 0.16 0.09 0.06 0.02 0.00 0.00 0.04 0.00 0.00 0.00 0.00 0.00 0.00 0.00 0.01 0.02 0.04 0.08 0.11 0.15 0.18 0.20
0.02 0.02 0.01 0.01 0.00 0.06 0.07 0.07 0.05 0.00 0.00 0.01 0.00 0.00 0.00 0.00 0.00 0.00 0.00 0.01 0.01 0.02 0.04 0.05 0.07 0.08 0.09
0.00 0.00 0.00 0.00 0.00 0.01 0.07 0.25 0.13 0.13 0.00 0.14 0.07 0.05 0.19 0.01 0.00 0.00 0.00 0.00 0.00 0.01 0.02 0.03 0.06 0.09 0.12
0.00 0.00 0.00 0.00 0.00 0.00 0.02 0.21 0.40 0.26 0.00 0.37 0.43 0.05 0.23 0.07 0.00 0.00 0.00 0.00 0.00 0.00 0.01 0.04 0.11 0.22 0.35
0.00 0.00 0.00 0.00 0.00 0.00 0.00 0.02 0.10 0.27 0.09 0.17 0.68 0.21 0.39 0.20 0.02 0.00 0.00 0.00 0.00 0.02 0.03 0.08 0.16 0.24 0.29
0.01 0.00 0.00 0.00 0.00 0.00 0.00 0.00 0.01 0.01 0.03 0.03 0.25 0.23 0.36 0.37 0.20 0.04 0.07 0.02 0.01 0.08 0.14 0.22 0.25 0.27 0.32
0.01 0.00 0.00 0.00 0.00 0.00 0.03 0.01 0.05 0.00 0.00 0.01 0.06 0.22 0.35 0.16 0.29 0.20 0.06 0.19 0.08 0.09 0.22 0.17 0.16 0.23 0.30
0.02 0.02 0.01 0.00 0.00 0.00 0.04 0.09 0.10 0.03 0.02 0.00 0.00 0.02 0.07 0.12 0.25 0.11 0.08 0.09 0.19 0.31 0.28 0.21 0.10 0.24 0.28
0.03 0.04 0.06 0.04 0.04 0.02 0.02 0.07 0.10 0.03 0.04 0.02 0.01 0.06 0.02 0.01 0.09 0.23 0.26 0.20 0.20 0.23 0.23 0.47 0.24 0.16 0.14
0.04 0.06 0.12 0.09 0.03 0.04 0.03 0.05 0.04 0.03 0.03 0.04 0.11 0.27 0.29 0.07 0.03 0.19 0.62 0.46 0.23 0.24 0.28 0.42 0.54 0.41 0.32

GFSFLT2_prec_precacc_036.txt.gz
Total_Precipitation_Accumulation
0.01 0.01 0.01 0.01 0.01 0.00 0.00 0.00 0.00 0.01 0.01 0.00 0.00 0.00 0.01 0.01 0.03 0.04 0.06 0.10 0.14 0.18 0.25 0.35 0.41 0.43 0.44
0.06 0.07 0.05 0.03 0.01 0.00 0.00 0.00 0.00 0.00 0.00 0.00 0.00 0.00 0.01 0.02 0.04 0.07 0.12 0.16 0.19 0.21 0.21 0.21 0.21 0.23 0.28
0.05 0.02 0.03 0.03 0.03 0.01 0.00 0.00 0.00 0.00 0.00 0.00 0.00 0.00 0.01 0.03 0.05 0.07 0.07 0.05 0.06 0.06 0.06 0.07 0.08 0.11 0.13
0.09 0.07 0.06 0.04 0.02 0.00 0.00 0.00 0.00 0.00 0.00 0.00 0.00 0.00 0.00 0.00 0.00 0.00 0.00 0.00 0.01 0.01 0.03 0.05 0.07 0.09 0.09
0.15 0.13 0.07 0.00 0.00 0.00 0.00 0.01 0.01 0.00 0.00 0.00 0.00 0.00 0.00 0.00 0.00 0.00 0.00 0.01 0.03 0.07 0.11 0.14 0.16 0.19 0.19
0.16 0.05 0.00 0.00 0.00 0.02 0.06 0.06 0.06 0.00 0.00 0.00 0.00 0.00 0.00 0.00 0.00 0.01 0.01 0.02 0.03 0.06 0.09 0.12 0.13 0.15 0.19
0.01 0.00 0.01 0.03 0.10 0.10 0.08 0.11 0.06 0.00 0.02 0.02 0.00 0.00 0.00 0.00 0.00 0.00 0.01 0.01 0.02 0.05 0.08 0.10 0.10 0.11 0.13
0.00 0.01 0.04 0.04 0.07 0.17 0.10 0.07 0.02 0.00 0.00 0.04 0.00 0.00 0.00 0.00 0.00 0.00 0.00 0.01 0.02 0.04 0.08 0.11 0.15 0.18 0.20
0.02 0.02 0.01 0.01 0.00 0.06 0.07 0.07 0.05 0.00 0.00 0.01 0.00 0.00 0.00 0.00 0.00 0.00 0.00 0.01 0.01 0.02 0.04 0.05 0.07 0.08 0.09
0.00 0.00 0.00 0.00 0.00 0.01 0.07 0.25 0.14 0.13 0.00 0.14 0.07 0.05 0.20 0.01 0.00 0.00 0.00 0.00 0.00 0.01 0.02 0.03 0.06 0.09 0.12
0.00 0.00 0.00 0.00 0.00 0.00 0.02 0.21 0.40 0.26 0.00 0.38 0.43 0.05 0.24 0.07 0.00 0.00 0.00 0.00 0.00 0.00 0.01 0.04 0.11 0.22 0.35
0.00 0.00 0.00 0.00 0.00 0.00 0.00 0.02 0.10 0.27 0.09 0.18 0.70 0.21 0.39 0.21 0.02 0.00 0.00 0.00 0.00 0.02 0.03 0.08 0.16 0.24 0.29
0.01 0.00 0.00 0.00 0.00 0.00 0.00 0.00 0.01 0.01 0.03 0.03 0.25 0.23 0.37 0.38 0.21 0.04 0.07 0.02 0.01 0.08 0.14 0.22 0.25 0.27 0.32
0.01 0.00 0.00 0.00 0.00 0.00 0.03 0.01 0.05 0.00 0.00 0.01 0.06 0.22 0.36 0.16 0.30 0.20 0.06 0.19 0.08 0.09 0.22 0.17 0.16 0.23 0.31
0.02 0.02 0.01 0.00 0.00 0.00 0.04 0.09 0.10 0.04 0.02 0.00 0.00 0.02 0.07 0.13 0.26 0.12 0.08 0.09 0.19 0.31 0.29 0.22 0.10 0.24 0.28
0.03 0.04 0.06 0.04 0.05 0.02 0.02 0.07 0.10 0.04 0.04 0.02 0.02 0.06 0.02 0.01 0.10 0.23 0.26 0.20 0.20 0.23 0.23 0.49 0.25 0.16 0.14
0.05 0.06 0.12 0.09 0.03 0.04 0.03 0.05 0.04 0.03 0.03 0.04 0.12 0.28 0.32 0.08 0.03 0.19 0.62 0.46 0.24 0.24 0.28 0.42 0.55 0.41 0.33

GFSFLT2_prec_precacc_042.txt.gz
Total_Precipitation_Accumulation
0.37 0.20 0.11 0.07 0.06 0.07 0.05 0.05 0.02 0.02 0.01 0.00 0.00 0.00 0.01 0.01 0.03 0.04 0.06 0.10 0.14 0.18 0.25 0.35 0.42 0.43 0.45
0.40 0.34 0.29 0.20 0.13 0.07 0.02 0.00 0.00 0.00 0.00 0.00 0.00 0.00 0.01 0.02 0.04 0.07 0.12 0.16 0.19 0.21 0.22 0.21 0.21 0.23 0.28
0.33 0.23 0.17 0.12 0.08 0.02 0.01 0.00 0.00 0.00 0.00 0.00 0.00 0.00 0.01 0.03 0.05 0.07 0.07 0.05 0.06 0.06 0.06 0.07 0.08 0.11 0.13
0.19 0.14 0.10 0.06 0.03 0.01 0.00 0.00 0.00 0.00 0.00 0.00 0.00 0.00 0.00 0.00 0.00 0.00 0.00 0.00 0.01 0.01 0.03 0.05 0.07 0.09 0.10
0.20 0.15 0.08 0.01 0.00 0.00 0.00 0.01 0.01 0.00 0.00 0.00 0.00 0.00 0.00 0.00 0.00 0.00 0.00 0.01 0.03 0.07 0.11 0.14 0.16 0.19 0.20
0.17 0.05 0.00 0.00 0.00 0.02 0.06 0.06 0.06 0.00 0.00 0.00 0.00 0.00 0.00 0.00 0.00 0.01 0.01 0.02 0.03 0.06 0.09 0.12 0.13 0.15 0.19
0.01 0.00 0.01 0.03 0.10 0.10 0.08 0.11 0.06 0.00 0.02 0.02 0.00 0.00 0.00 0.00 0.00 0.00 0.01 0.01 0.02 0.05 0.08 0.10 0.10 0.11 0.13
0.00 0.01 0.04 0.04 0.07 0.17 0.10 0.07 0.02 0.00 0.00 0.04 0.00 0.00 0.00 0.00 0.00 0.00 0.00 0.01 0.02 0.04 0.08 0.11 0.15 0.18 0.20
0.02 0.02 0.01 0.01 0.00 0.06 0.07 0.07 0.05 0.00 0.00 0.01 0.00 0.00 0.00 0.00 0.00 0.00 0.00 0.01 0.01 0.02 0.04 0.05 0.07 0.09 0.09
0.00 0.00 0.00 0.00 0.00 0.01 0.07 0.25 0.14 0.13 0.00 0.14 0.07 0.05 0.20 0.01 0.00 0.00 0.00 0.00 0.00 0.01 0.02 0.03 0.06 0.09 0.12
0.00 0.00 0.00 0.00 0.00 0.00 0.02 0.21 0.40 0.27 0.00 0.39 0.44 0.05 0.25 0.08 0.00 0.00 0.00 0.00 0.00 0.00 0.01 0.04 0.11 0.22 0.35
0.00 0.00 0.00 0.00 0.00 0.00 0.00 0.02 0.10 0.27 0.09 0.19 0.72 0.22 0.41 0.22 0.02 0.00 0.00 0.00 0.00 0.02 0.03 0.08 0.16 0.24 0.29
0.01 0.00 0.00 0.00 0.00 0.00 0.00 0.00 0.01 0.01 0.03 0.03 0.26 0.24 0.39 0.41 0.22 0.04 0.07 0.02 0.01 0.08 0.14 0.22 0.25 0.27 0.32
0.01 0.00 0.00 0.00 0.00 0.00 0.03 0.01 0.06 0.00 0.00 0.01 0.06 0.23 0.39 0.18 0.33 0.22 0.06 0.20 0.08 0.09 0.22 0.17 0.16 0.23 0.31
0.02 0.02 0.01 0.00 0.00 0.00 0.04 0.09 0.11 0.04 0.02 0.00 0.00 0.02 0.09 0.15 0.30 0.12 0.08 0.09 0.19 0.31 0.29 0.24 0.11 0.24 0.28
0.03 0.04 0.06 0.04 0.05 0.02 0.03 0.08 0.11 0.04 0.04 0.02 0.02 0.07 0.03 0.01 0.10 0.24 0.26 0.20 0.20 0.23 0.24 0.51 0.25 0.16 0.14
0.05 0.07 0.13 0.10 0.04 0.05 0.03 0.05 0.05 0.03 0.04 0.04 0.12 0.30 0.35 0.10 0.03 0.19 0.62 0.46 0.24 0.24 0.28 0.42 0.55 0.41 0.33

GFSFLT2_prec_precacc_045.txt.gz
Total_Precipitation_Accumulation
0.57 0.47 0.40 0.33 0.30 0.21 0.14 0.08 0.05 0.05 0.03 0.01 0.00 0.00 0.01 0.01 0.03 0.04 0.06 0.10 0.14 0.18 0.25 0.35 0.42 0.43 0.45
0.49 0.44 0.39 0.31 0.23 0.15 0.07 0.04 0.02 0.02 0.01 0.00 0.00 0.00 0.01 0.02 0.04 0.07 0.12 0.16 0.19 0.21 0.22 0.21 0.21 0.23 0.28
0.47 0.37 0.30 0.20 0.14 0.06 0.02 0.01 0.00 0.00 0.00 0.00 0.00 0.00 0.01 0.03 0.05 0.07 0.07 0.05 0.06 0.06 0.07 0.07 0.08 0.11 0.13
0.32 0.17 0.12 0.07 0.04 0.02 0.00 0.00 0.00 0.00 0.00 0.00 0.00 0.00 0.00 0.00 0.00 0.00 0.00 0.00 0.01 0.01 0.03 0.05 0.07 0.09 0.10
0.21 0.16 0.09 0.02 0.01 0.00 0.00 0.01 0.01 0.00 0.00 0.00 0.00 0.00 0.00 0.00 0.00 0.00 0.00 0.01 0.03 0.07 0.11 0.14 0.16 0.19 0.20
0.17 0.05 0.00 0.00 0.00 0.02 0.06 0.06 0.06 0.00 0.00 0.00 0.00 0.00 0.00 0.00 0.00 0.01 0.01 0.02 0.03 0.06 0.09 0.12 0.13 0.15 0.19
0.01 0.00 0.01 0.03 0.10 0.10 0.08 0.11 0.06 0.00 0.02 0.02 0.00 0.00 0.00 0.00 0.00 0.00 0.01 0.01 0.02 0.05 0.08 0.10 0.10 0.11 0.13
0.00 0.01 0.04 0.04 0.07 0.17 0.10 0.07 0.02 0.00 0.00 0.04 0.00 0.00 0.00 0.00 0.00 0.00 0.00 0.01 0.02 0.04 0.08 0.11 0.15 0.18 0.20
0.02 0.02 0.01 0.01 0.00 0.06 0.07 0.07 0.05 0.00 0.00 0.01 0.00 0.00 0.00 0.00 0.00 0.00 0.00 0.01 0.01 0.02 0.04 0.05 0.07 0.09 0.09
0.00 0.00 0.00 0.00 0.00 0.01 0.07 0.25 0.14 0.13 0.00 0.14 0.07 0.05 0.20 0.01 0.00 0.00 0.00 0.00 0.00 0.01 0.02 0.03 0.06 0.09 0.12
0.00 0.00 0.00 0.00 0.00 0.00 0.02 0.21 0.40 0.27 0.00 0.39 0.45 0.05 0.25 0.08 0.00 0.00 0.00 0.00 0.00 0.00 0.01 0.04 0.11 0.22 0.35
0.00 0.00 0.00 0.00 0.00 0.00 0.00 0.02 0.10 0.27 0.09 0.19 0.73 0.22 0.42 0.23 0.03 0.00 0.00 0.00 0.00 0.02 0.03 0.08 0.16 0.24 0.29
0.01 0.00 0.00 0.00 0.00 0.00 0.00 0.00 0.01 0.01 0.03 0.03 0.26 0.24 0.40 0.43 0.23 0.04 0.07 0.02 0.01 0.08 0.14 0.22 0.25 0.27 0.32
0.01 0.00 0.00 0.00 0.00 0.00 0.03 0.01 0.06 0.00 0.00 0.01 0.06 0.23 0.40 0.19 0.34 0.22 0.06 0.20 0.08 0.09 0.22 0.17 0.16 0.23 0.31
0.02 0.02 0.01 0.00 0.00 0.00 0.04 0.09 0.11 0.04 0.02 0.00 0.00 0.02 0.09 0.16 0.32 0.13 0.08 0.09 0.19 0.31 0.29 0.24 0.11 0.24 0.28
0.03 0.04 0.06 0.04 0.05 0.02 0.03 0.08 0.11 0.04 0.04 0.02 0.02 0.07 0.03 0.01 0.11 0.24 0.26 0.20 0.20 0.23 0.24 0.52 0.26 0.16 0.14
0.05 0.07 0.13 0.10 0.04 0.05 0.04 0.06 0.05 0.03 0.04 0.04 0.12 0.31 0.37 0.10 0.03 0.19 0.62 0.46 0.24 0.24 0.28 0.42 0.55 0.41 0.33

GFSFLT2_prec_precacc_048.txt.gz
Total_Precipitation_Accumulation
0.63 0.54 0.46 0.41 0.42 0.37 0.31 0.25 0.18 0.18 0.13 0.10 0.08 0.04 0.03 0.02 0.04 0.04 0.06 0.10 0.14 0.18 0.25 0.35 0.42 0.43 0.45
0.65 0.60 0.50 0.39 0.31 0.23 0.18 0.14 0.11 0.09 0.07 0.02 0.01 0.01 0.01 0.02 0.04 0.07 0.12 0.16 0.19 0.21 0.22 0.21 0.21 0.23 0.28
0.59 0.52 0.46 0.38 0.30 0.15 0.09 0.04 0.01 0.02 0.02 0.00 0.00 0.00 0.01 0.03 0.05 0.07 0.07 0.05 0.06 0.06 0.07 0.07 0.08 0.11 0.13
0.35 0.29 0.21 0.15 0.10 0.05 0.03 0.01 0.00 0.00 0.00 0.00 0.00 0.00 0.00 0.00 0.00 0.00 0.00 0.00 0.01 0.01 0.03 0.05 0.07 0.09 0.10
0.24 0.18 0.10 0.04 0.03 0.01 0.01 0.01 0.01 0.00 0.00 0.00 0.00 0.00 0.00 0.00 0.00 0.00 0.00 0.01 0.03 0.07 0.11 0.14 0.16 0.19 0.20
0.18 0.06 0.01 0.01 0.01 0.02 0.06 0.06 0.06 0.00 0.00 0.00 0.00 0.00 0.00 0.00 0.00 0.01 0.01 0.02 0.03 0.06 0.09 0.12 0.13 0.15 0.19
0.02 0.00 0.01 0.03 0.10 0.10 0.08 0.11 0.06 0.00 0.02 0.02 0.00 0.00 0.00 0.00 0.00 0.00 0.01 0.01 0.02 0.05 0.08 0.10 0.10 0.12 0.13
0.00 0.01 0.04 0.04 0.07 0.17 0.10 0.07 0.02 0.00 0.00 0.04 0.00 0.00 0.00 0.00 0.00 0.00 0.00 0.01 0.02 0.04 0.08 0.11 0.15 0.18 0.20
0.02 0.02 0.01 0.01 0.00 0.06 0.07 0.07 0.05 0.00 0.00 0.01 0.00 0.00 0.00 0.00 0.00 0.00 0.00 0.01 0.01 0.02 0.04 0.05 0.07 0.09 0.09
0.00 0.00 0.00 0.00 0.00 0.01 0.07 0.25 0.14 0.13 0.00 0.14 0.07 0.05 0.20 0.01 0.00 0.00 0.00 0.00 0.00 0.01 0.02 0.03 0.06 0.09 0.12
0.00 0.00 0.00 0.00 0.00 0.00 0.02 0.21 0.40 0.27 0.00 0.39 0.45 0.05 0.25 0.08 0.00 0.00 0.00 0.00 0.00 0.00 0.01 0.04 0.11 0.22 0.35
0.00 0.00 0.00 0.00 0.00 0.00 0.00 0.02 0.10 0.27 0.09 0.19 0.73 0.22 0.42 0.23 0.03 0.00 0.00 0.00 0.00 0.02 0.03 0.08 0.16 0.24 0.29
0.01 0.00 0.00 0.00 0.00 0.00 0.00 0.00 0.01 0.01 0.03 0.03 0.26 0.24 0.42 0.44 0.23 0.04 0.07 0.02 0.01 0.08 0.14 0.22 0.25 0.27 0.32
0.01 0.00 0.00 0.00 0.00 0.00 0.03 0.01 0.06 0.00 0.00 0.01 0.06 0.24 0.41 0.20 0.35 0.23 0.06 0.20 0.08 0.09 0.22 0.17 0.16 0.23 0.31
0.02 0.02 0.01 0.00 0.00 0.00 0.04 0.09 0.11 0.04 0.02 0.00 0.00 0.02 0.09 0.16 0.33 0.13 0.08 0.09 0.19 0.31 0.29 0.24 0.11 0.24 0.28
0.03 0.04 0.07 0.04 0.05 0.02 0.03 0.09 0.11 0.04 0.04 0.02 0.02 0.07 0.03 0.01 0.11 0.24 0.27 0.20 0.20 0.23 0.24 0.53 0.26 0.16 0.14
0.05 0.07 0.14 0.10 0.04 0.05 0.04 0.06 0.05 0.04 0.04 0.04 0.12 0.31 0.38 0.10 0.03 0.19 0.62 0.46 0.24 0.24 0.28 0.43 0.55 0.41 0.33

GFSFLT2_prec_precacc_051.txt.gz
Total_Precipitation_Accumulation
0.63 0.54 0.48 0.44 0.47 0.42 0.38 0.33 0.27 0.31 0.27 0.24 0.20 0.15 0.13 0.09 0.08 0.08 0.08 0.11 0.14 0.18 0.25 0.35 0.42 0.43 0.45
0.67 0.63 0.58 0.52 0.46 0.39 0.29 0.24 0.22 0.24 0.20 0.13 0.08 0.05 0.04 0.03 0.05 0.07 0.12 0.16 0.19 0.21 0.22 0.21 0.21 0.23 0.28
0.61 0.55 0.49 0.44 0.37 0.26 0.22 0.18 0.13 0.12 0.09 0.04 0.03 0.02 0.02 0.03 0.05 0.07 0.07 0.05 0.06 0.06 0.07 0.07 0.08 0.11 0.14
0.36 0.31 0.25 0.20 0.16 0.12 0.09 0.05 0.03 0.02 0.01 0.01 0.01 0.00 0.00 0.00 0.00 0.00 0.00 0.00 0.01 0.01 0.03 0.05 0.07 0.09 0.10
0.26 0.21 0.12 0.05 0.04 0.03 0.03 0.03 0.01 0.00 0.00 0.00 0.00 0.00 0.00 0.00 0.00 0.00 0.00 0.01 0.03 0.07 0.11 0.14 0.16 0.19 0.20
0.19 0.07 0.02 0.01 0.01 0.03 0.06 0.06 0.06 0.00 0.00 0.00 0.00 0.00 0.00 0.00 0.00 0.01 0.01 0.02 0.03 0.06 0.09 0.12 0.13 0.15 0.19
0.02 0.00 0.01 0.03 0.10 0.10 0.08 0.11 0.06 0.00 0.02 0.02 0.00 0.00 0.00 0.00 0.00 0.00 0.01 0.01 0.02 0.05 0.08 0.10 0.10 0.12 0.13
0.00 0.01 0.04 0.04 0.07 0.17 0.10 0.07 0.02 0.00 0.00 0.04 0.00 0.00 0.00 0.00 0.00 0.00 0.00 0.01 0.02 0.04 0.08 0.11 0.15 0.18 0.20
0.02 0.02 0.01 0.01 0.00 0.06 0.07 0.07 0.05 0.00 0.00 0.01 0.00 0.00 0.00 0.00 0.00 0.00 0.00 0.01 0.01 0.02 0.04 0.05 0.07 0.09 0.09
0.00 0.00 0.00 0.00 0.00 0.01 0.07 0.25 0.14 0.13 0.00 0.14 0.07 0.05 0.20 0.01 0.00 0.00 0.00 0.00 0.00 0.01 0.02 0.03 0.06 0.09 0.12
0.00 0.00 0.00 0.00 0.00 0.00 0.02 0.21 0.40 0.27 0.00 0.39 0.45 0.05 0.25 0.08 0.00 0.00 0.00 0.00 0.00 0.00 0.01 0.04 0.11 0.22 0.35
0.00 0.00 0.00 0.00 0.00 0.00 0.00 0.02 0.10 0.27 0.09 0.19 0.73 0.22 0.42 0.24 0.03 0.00 0.00 0.00 0.00 0.02 0.03 0.08 0.16 0.24 0.29
0.01 0.00 0.00 0.00 0.00 0.00 0.00 0.00 0.01 0.01 0.03 0.03 0.26 0.25 0.43 0.44 0.23 0.04 0.07 0.02 0.01 0.08 0.14 0.22 0.25 0.27 0.32
0.01 0.00 0.00 0.00 0.00 0.00 0.03 0.01 0.06 0.00 0.00 0.01 0.06 0.24 0.42 0.21 0.36 0.23 0.06 0.20 0.08 0.09 0.22 0.17 0.16 0.23 0.31
0.02 0.02 0.01 0.00 0.00 0.00 0.04 0.09 0.12 0.04 0.02 0.00 0.00 0.02 0.09 0.16 0.34 0.13 0.08 0.09 0.19 0.31 0.29 0.24 0.11 0.24 0.28
0.03 0.04 0.07 0.05 0.05 0.02 0.03 0.09 0.11 0.04 0.04 0.02 0.02 0.07 0.03 0.01 0.11 0.24 0.27 0.20 0.20 0.23 0.24 0.53 0.26 0.16 0.14
0.05 0.07 0.14 0.10 0.05 0.05 0.04 0.06 0.05 0.04 0.04 0.04 0.12 0.32 0.40 0.11 0.03 0.19 0.62 0.46 0.24 0.24 0.28 0.43 0.55 0.41 0.33

GFSFLT2_prec_precacc_054.txt.gz
Total_Precipitation_Accumulation
0.63 0.54 0.48 0.44 0.47 0.42 0.39 0.37 0.37 0.50 0.42 0.36 0.31 0.24 0.21 0.19 0.17 0.16 0.16 0.17 0.18 0.21 0.29 0.38 0.45 0.46 0.47
0.67 0.63 0.58 0.52 0.47 0.39 0.33 0.30 0.29 0.34 0.29 0.20 0.14 0.11 0.10 0.09 0.12 0.14 0.16 0.18 0.20 0.22 0.22 0.21 0.21 0.23 0.28
0.61 0.55 0.49 0.44 0.37 0.26 0.24 0.21 0.18 0.19 0.16 0.12 0.10 0.08 0.06 0.09 0.09 0.10 0.08 0.06 0.07 0.06 0.07 0.07 0.08 0.11 0.14
0.36 0.31 0.25 0.20 0.16 0.12 0.09 0.06 0.03 0.03 0.03 0.02 0.02 0.01 0.01 0.02 0.01 0.00 0.00 0.00 0.01 0.01 0.03 0.05 0.07 0.09 0.10
0.26 0.21 0.12 0.05 0.04 0.03 0.03 0.03 0.01 0.00 0.00 0.00 0.00 0.00 0.00 0.00 0.00 0.00 0.00 0.01 0.03 0.07 0.11 0.14 0.16 0.19 0.20
0.19 0.07 0.02 0.01 0.01 0.03 0.06 0.06 0.06 0.00 0.00 0.00 0.00 0.00 0.00 0.00 0.00 0.01 0.01 0.02 0.03 0.06 0.09 0.12 0.13 0.15 0.19
0.02 0.00 0.01 0.03 0.10 0.10 0.08 0.11 0.06 0.00 0.02 0.02 0.00 0.00 0.00 0.00 0.00 0.00 0.01 0.01 0.02 0.05 0.09 0.10 0.11 0.12 0.13
0.00 0.01 0.04 0.04 0.07 0.17 0.10 0.07 0.02 0.00 0.00 0.04 0.00 0.00 0.00 0.00 0.00 0.00 0.00 0.01 0.02 0.04 0.08 0.11 0.15 0.19 0.21
0.02 0.02 0.01 0.01 0.00 0.06 0.07 0.07 0.05 0.00 0.00 0.01 0.00 0.00 0.00 0.00 0.00 0.00 0.00 0.01 0.01 0.02 0.04 0.05 0.07 0.09 0.09
0.00 0.00 0.00 0.00 0.00 0.01 0.07 0.25 0.14 0.13 0.00 0.14 0.07 0.05 0.20 0.01 0.00 0.00 0.00 0.00 0.00 0.01 0.02 0.03 0.06 0.09 0.12
0.00 0.00 0.00 0.00 0.00 0.00 0.02 0.21 0.40 0.27 0.00 0.39 0.45 0.05 0.25 0.08 0.00 0.00 0.00 0.00 0.00 0.00 0.01 0.04 0.11 0.22 0.35
0.00 0.00 0.00 0.00 0.00 0.00 0.00 0.02 0.10 0.27 0.09 0.19 0.73 0.22 0.43 0.24 0.03 0.00 0.00 0.00 0.00 0.02 0.03 0.08 0.16 0.24 0.29
0.01 0.00 0.00 0.00 0.00 0.00 0.00 0.00 0.01 0.01 0.03 0.03 0.26 0.25 0.43 0.45 0.24 0.04 0.07 0.02 0.01 0.08 0.14 0.22 0.25 0.27 0.32
0.01 0.00 0.00 0.00 0.00 0.00 0.03 0.01 0.06 0.00 0.00 0.01 0.06 0.24 0.43 0.21 0.36 0.23 0.06 0.20 0.08 0.09 0.22 0.17 0.16 0.23 0.31
0.02 0.02 0.01 0.00 0.00 0.00 0.04 0.09 0.12 0.04 0.02 0.00 0.00 0.02 0.09 0.16 0.34 0.13 0.08 0.09 0.19 0.31 0.29 0.24 0.11 0.24 0.28
0.03 0.04 0.07 0.05 0.06 0.03 0.03 0.09 0.12 0.04 0.04 0.02 0.02 0.08 0.03 0.01 0.11 0.24 0.27 0.20 0.20 0.23 0.24 0.53 0.26 0.16 0.14
0.05 0.07 0.14 0.10 0.05 0.05 0.04 0.06 0.05 0.04 0.04 0.04 0.12 0.32 0.41 0.11 0.03 0.19 0.62 0.46 0.24 0.24 0.28 0.43 0.55 0.41 0.33

GFSFLT2_prec_precacc_057.txt.gz
Total_Precipitation_Accumulation
0.63 0.54 0.48 0.44 0.47 0.42 0.39 0.37 0.37 0.52 0.49 0.47 0.40 0.30 0.26 0.24 0.23 0.23 0.22 0.24 0.29 0.33 0.40 0.46 0.50 0.51 0.52
0.67 0.63 0.58 0.52 0.47 0.39 0.33 0.30 0.29 0.35 0.32 0.23 0.16 0.13 0.12 0.12 0.15 0.17 0.21 0.24 0.28 0.30 0.30 0.29 0.26 0.25 0.29
0.61 0.55 0.49 0.44 0.37 0.26 0.24 0.21 0.18 0.19 0.16 0.12 0.10 0.09 0.09 0.12 0.13 0.13 0.12 0.10 0.10 0.09 0.09 0.09 0.09 0.12 0.14
0.36 0.31 0.25 0.20 0.16 0.12 0.09 0.06 0.03 0.03 0.03 0.02 0.02 0.01 0.02 0.02 0.02 0.01 0.00 0.01 0.01 0.01 0.03 0.05 0.07 0.09 0.10
0.26 0.21 0.12 0.05 0.04 0.03 0.03 0.03 0.01 0.00 0.00 0.00 0.00 0.00 0.00 0.00 0.00 0.00 0.00 0.01 0.03 0.07 0.11 0.14 0.16 0.19 0.20
0.19 0.07 0.02 0.01 0.01 0.03 0.06 0.06 0.06 0.00 0.00 0.00 0.00 0.00 0.00 0.00 0.00 0.01 0.01 0.02 0.03 0.06 0.09 0.12 0.13 0.15 0.19
0.02 0.00 0.01 0.03 0.10 0.10 0.08 0.11 0.06 0.00 0.02 0.02 0.00 0.00 0.00 0.00 0.00 0.00 0.01 0.01 0.02 0.05 0.09 0.10 0.11 0.12 0.13
0.00 0.01 0.04 0.04 0.07 0.17 0.10 0.07 0.02 0.00 0.00 0.04 0.00 0.00 0.00 0.00 0.00 0.00 0.00 0.01 0.02 0.04 0.08 0.11 0.16 0.19 0.21
0.02 0.02 0.01 0.01 0.00 0.06 0.07 0.07 0.05 0.00 0.00 0.01 0.00 0.00 0.00 0.00 0.00 0.00 0.00 0.01 0.01 0.02 0.04 0.05 0.07 0.09 0.09
0.00 0.00 0.00 0.00 0.00 0.01 0.07 0.25 0.14 0.13 0.00 0.14 0.07 0.05 0.20 0.01 0.00 0.00 0.00 0.00 0.00 0.01 0.02 0.03 0.06 0.09 0.12
0.00 0.00 0.00 0.00 0.00 0.00 0.02 0.21 0.40 0.27 0.00 0.39 0.45 0.05 0.25 0.08 0.00 0.00 0.00 0.00 0.00 0.00 0.01 0.04 0.11 0.22 0.35
0.00 0.00 0.00 0.00 0.00 0.00 0.00 0.02 0.10 0.27 0.09 0.19 0.73 0.22 0.43 0.24 0.03 0.00 0.00 0.00 0.00 0.02 0.03 0.08 0.16 0.24 0.29
0.01 0.00 0.00 0.00 0.00 0.00 0.00 0.00 0.01 0.01 0.03 0.03 0.26 0.25 0.43 0.46 0.24 0.04 0.07 0.02 0.01 0.08 0.14 0.22 0.25 0.27 0.32
0.01 0.00 0.00 0.00 0.00 0.00 0.03 0.01 0.06 0.00 0.00 0.01 0.06 0.24 0.43 0.21 0.36 0.23 0.06 0.20 0.08 0.09 0.22 0.17 0.16 0.23 0.31
0.02 0.02 0.01 0.00 0.00 0.00 0.04 0.09 0.12 0.04 0.02 0.00 0.00 0.02 0.09 0.16 0.34 0.13 0.08 0.09 0.19 0.31 0.29 0.24 0.11 0.24 0.28
0.03 0.04 0.07 0.05 0.06 0.03 0.03 0.09 0.12 0.04 0.04 0.02 0.02 0.08 0.03 0.01 0.11 0.24 0.27 0.20 0.20 0.23 0.24 0.53 0.26 0.16 0.14
0.05 0.07 0.14 0.10 0.05 0.05 0.04 0.06 0.05 0.04 0.04 0.04 0.12 0.32 0.41 0.11 0.03 0.19 0.62 0.46 0.24 0.24 0.28 0.43 0.55 0.41 0.33

GFSFLT2_prec_precacc_060.txt.gz
Total_Precipitation_Accumulation
0.63 0.54 0.48 0.44 0.47 0.42 0.39 0.37 0.38 0.52 0.50 0.49 0.45 0.34 0.30 0.27 0.26 0.25 0.25 0.27 0.31 0.36 0.43 0.51 0.57 0.58 0.57
0.67 0.63 0.58 0.52 0.47 0.39 0.33 0.30 0.29 0.35 0.32 0.24 0.18 0.14 0.13 0.13 0.15 0.17 0.21 0.24 0.28 0.31 0.32 0.31 0.30 0.29 0.32
0.61 0.55 0.49 0.44 0.37 0.26 0.24 0.21 0.18 0.19 0.16 0.12 0.10 0.09 0.09 0.12 0.13 0.14 0.12 0.11 0.11 0.10 0.10 0.10 0.10 0.13 0.16
0.36 0.31 0.25 0.20 0.16 0.12 0.09 0.06 0.03 0.03 0.03 0.02 0.02 0.01 0.02 0.02 0.02 0.01 0.00 0.01 0.01 0.01 0.03 0.05 0.07 0.09 0.10
0.26 0.21 0.12 0.05 0.04 0.03 0.03 0.03 0.01 0.00 0.00 0.00 0.00 0.00 0.00 0.00 0.00 0.00 0.00 0.01 0.03 0.07 0.11 0.14 0.16 0.19 0.20
0.19 0.07 0.02 0.01 0.01 0.03 0.06 0.06 0.06 0.00 0.00 0.00 0.00 0.00 0.00 0.00 0.00 0.01 0.01 0.02 0.03 0.06 0.09 0.12 0.13 0.15 0.19
0.02 0.00 0.01 0.03 0.10 0.10 0.08 0.11 0.06 0.00 0.02 0.02 0.00 0.00 0.00 0.00 0.00 0.00 0.01 0.01 0.02 0.05 0.09 0.10 0.11 0.12 0.14
0.00 0.01 0.04 0.04 0.07 0.17 0.10 0.07 0.02 0.00 0.00 0.04 0.00 0.00 0.00 0.00 0.00 0.00 0.00 0.01 0.02 0.04 0.08 0.11 0.16 0.19 0.21
0.02 0.02 0.01 0.01 0.00 0.06 0.07 0.07 0.05 0.00 0.00 0.01 0.00 0.00 0.00 0.00 0.00 0.00 0.00 0.01 0.01 0.02 0.04 0.05 0.07 0.09 0.09
0.00 0.00 0.00 0.00 0.00 0.01 0.07 0.25 0.14 0.13 0.00 0.14 0.07 0.05 0.20 0.01 0.00 0.00 0.00 0.00 0.00 0.01 0.02 0.03 0.06 0.09 0.12
0.00 0.00 0.00 0.00 0.00 0.00 0.02 0.21 0.40 0.27 0.00 0.39 0.45 0.05 0.25 0.08 0.00 0.00 0.00 0.00 0.00 0.00 0.01 0.04 0.11 0.22 0.35
0.00 0.00 0.00 0.00 0.00 0.00 0.00 0.02 0.10 0.27 0.09 0.19 0.73 0.22 0.43 0.24 0.03 0.00 0.00 0.00 0.00 0.02 0.03 0.08 0.16 0.24 0.29
0.01 0.00 0.00 0.00 0.00 0.00 0.00 0.00 0.01 0.01 0.03 0.03 0.26 0.25 0.44 0.46 0.24 0.04 0.07 0.02 0.01 0.08 0.14 0.22 0.25 0.27 0.32
0.01 0.00 0.00 0.00 0.00 0.00 0.03 0.01 0.06 0.00 0.00 0.01 0.06 0.24 0.43 0.21 0.36 0.23 0.06 0.20 0.08 0.09 0.22 0.17 0.16 0.23 0.31
0.02 0.02 0.01 0.00 0.00 0.00 0.04 0.09 0.12 0.04 0.02 0.00 0.00 0.02 0.09 0.16 0.34 0.13 0.08 0.09 0.19 0.31 0.29 0.24 0.11 0.24 0.28
0.03 0.04 0.07 0.05 0.06 0.03 0.03 0.09 0.12 0.04 0.04 0.02 0.02 0.08 0.03 0.01 0.11 0.24 0.27 0.20 0.20 0.23 0.24 0.53 0.26 0.16 0.14
0.05 0.07 0.14 0.10 0.05 0.05 0.04 0.06 0.05 0.04 0.04 0.04 0.12 0.32 0.41 0.11 0.03 0.19 0.62 0.46 0.24 0.24 0.28 0.43 0.55 0.41 0.33

GFSFLT2_prec_precacc_063.txt.gz
Total_Precipitation_Accumulation
0.63 0.54 0.48 0.44 0.47 0.42 0.39 0.37 0.38 0.52 0.50 0.49 0.46 0.36 0.32 0.28 0.26 0.26 0.26 0.29 0.33 0.38 0.46 0.53 0.58 0.58 0.58
0.67 0.63 0.58 0.52 0.47 0.39 0.33 0.30 0.29 0.35 0.32 0.24 0.18 0.14 0.13 0.13 0.15 0.17 0.21 0.24 0.28 0.31 0.32 0.31 0.30 0.29 0.32
0.61 0.55 0.49 0.44 0.37 0.26 0.24 0.21 0.18 0.19 0.16 0.12 0.10 0.09 0.09 0.12 0.13 0.14 0.12 0.11 0.11 0.10 0.10 0.10 0.10 0.13 0.16
0.36 0.31 0.25 0.20 0.16 0.12 0.09 0.06 0.03 0.03 0.03 0.02 0.02 0.01 0.02 0.02 0.02 0.01 0.00 0.01 0.01 0.01 0.03 0.05 0.07 0.09 0.10
0.26 0.21 0.12 0.05 0.04 0.03 0.03 0.03 0.01 0.00 0.00 0.00 0.00 0.00 0.00 0.00 0.00 0.00 0.00 0.01 0.03 0.07 0.11 0.14 0.16 0.19 0.20
0.19 0.07 0.02 0.01 0.01 0.03 0.06 0.06 0.06 0.00 0.00 0.00 0.00 0.00 0.00 0.00 0.00 0.01 0.01 0.02 0.03 0.06 0.09 0.12 0.13 0.15 0.19
0.02 0.00 0.01 0.03 0.10 0.10 0.08 0.11 0.06 0.00 0.02 0.02 0.00 0.00 0.00 0.00 0.00 0.00 0.01 0.01 0.02 0.05 0.09 0.10 0.11 0.12 0.14
0.00 0.01 0.04 0.04 0.07 0.17 0.10 0.07 0.02 0.00 0.00 0.04 0.00 0.00 0.00 0.00 0.00 0.00 0.00 0.01 0.02 0.04 0.08 0.11 0.16 0.19 0.21
0.02 0.02 0.01 0.01 0.00 0.06 0.07 0.07 0.05 0.00 0.00 0.01 0.00 0.00 0.00 0.00 0.00 0.00 0.00 0.01 0.01 0.02 0.04 0.05 0.07 0.09 0.09
0.00 0.00 0.00 0.00 0.00 0.01 0.07 0.25 0.14 0.13 0.00 0.14 0.07 0.05 0.20 0.01 0.00 0.00 0.00 0.00 0.00 0.01 0.02 0.03 0.06 0.09 0.12
0.00 0.00 0.00 0.00 0.00 0.00 0.02 0.21 0.40 0.27 0.00 0.39 0.45 0.05 0.25 0.08 0.00 0.00 0.00 0.00 0.00 0.00 0.01 0.04 0.11 0.22 0.35
0.00 0.00 0.00 0.00 0.00 0.00 0.00 0.02 0.10 0.27 0.09 0.19 0.73 0.22 0.43 0.24 0.03 0.00 0.00 0.00 0.00 0.02 0.03 0.08 0.16 0.24 0.29
0.01 0.00 0.00 0.00 0.00 0.00 0.00 0.00 0.01 0.01 0.03 0.03 0.26 0.25 0.44 0.46 0.24 0.04 0.07 0.02 0.01 0.08 0.14 0.22 0.25 0.27 0.32
0.01 0.00 0.00 0.00 0.00 0.00 0.03 0.01 0.06 0.00 0.00 0.01 0.06 0.24 0.43 0.21 0.36 0.23 0.06 0.20 0.08 0.09 0.22 0.17 0.16 0.23 0.31
0.02 0.02 0.01 0.00 0.00 0.00 0.04 0.09 0.12 0.04 0.02 0.00 0.00 0.02 0.09 0.16 0.34 0.13 0.08 0.09 0.19 0.31 0.29 0.24 0.11 0.24 0.28
0.03 0.04 0.07 0.05 0.06 0.03 0.03 0.09 0.12 0.04 0.04 0.02 0.02 0.08 0.03 0.01 0.11 0.24 0.27 0.20 0.20 0.23 0.24 0.53 0.26 0.16 0.14
0.05 0.07 0.14 0.10 0.05 0.05 0.04 0.06 0.05 0.04 0.04 0.04 0.12 0.32 0.42 0.11 0.03 0.19 0.62 0.46 0.24 0.24 0.28 0.43 0.55 0.41 0.33

GFSFLT2_prec_precacc_066.txt.gz
Total_Precipitation_Accumulation
0.63 0.54 0.48 0.44 0.47 0.42 0.39 0.37 0.38 0.53 0.50 0.50 0.46 0.36 0.33 0.30 0.28 0.27 0.27 0.30 0.35 0.41 0.48 0.57 0.62 0.62 0.61
0.67 0.63 0.58 0.52 0.47 0.39 0.33 0.30 0.29 0.35 0.32 0.24 0.18 0.14 0.14 0.14 0.16 0.18 0.21 0.24 0.28 0.31 0.32 0.31 0.30 0.30 0.32
0.61 0.55 0.49 0.44 0.37 0.26 0.24 0.21 0.18 0.19 0.16 0.12 0.10 0.09 0.09 0.12 0.13 0.14 0.12 0.11 0.11 0.10 0.10 0.10 0.10 0.13 0.16
0.36 0.31 0.25 0.20 0.16 0.12 0.09 0.06 0.03 0.03 0.03 0.02 0.02 0.01 0.02 0.02 0.02 0.01 0.00 0.01 0.01 0.01 0.03 0.05 0.07 0.09 0.10
0.26 0.21 0.12 0.05 0.04 0.03 0.03 0.03 0.01 0.00 0.00 0.00 0.00 0.00 0.00 0.00 0.00 0.00 0.00 0.01 0.03 0.07 0.11 0.14 0.16 0.19 0.20
0.19 0.07 0.02 0.01 0.01 0.03 0.06 0.06 0.06 0.00 0.00 0.00 0.00 0.00 0.00 0.00 0.00 0.01 0.01 0.02 0.03 0.06 0.09 0.12 0.13 0.15 0.19
0.02 0.00 0.01 0.03 0.10 0.10 0.08 0.11 0.06 0.00 0.02 0.02 0.00 0.00 0.00 0.00 0.00 0.00 0.01 0.01 0.02 0.05 0.09 0.10 0.11 0.12 0.14
0.00 0.01 0.04 0.04 0.07 0.17 0.10 0.07 0.02 0.00 0.00 0.04 0.00 0.00 0.00 0.00 0.00 0.00 0.00 0.01 0.02 0.04 0.08 0.11 0.16 0.19 0.21
0.02 0.02 0.01 0.01 0.00 0.06 0.07 0.07 0.05 0.00 0.00 0.01 0.00 0.00 0.00 0.00 0.00 0.00 0.00 0.01 0.01 0.02 0.04 0.05 0.07 0.09 0.09
0.00 0.00 0.00 0.00 0.00 0.01 0.07 0.25 0.14 0.13 0.00 0.14 0.07 0.05 0.20 0.01 0.00 0.00 0.00 0.00 0.00 0.01 0.02 0.03 0.06 0.09 0.12
0.00 0.00 0.00 0.00 0.00 0.00 0.02 0.21 0.40 0.27 0.00 0.39 0.45 0.05 0.25 0.08 0.00 0.00 0.00 0.00 0.00 0.00 0.01 0.04 0.11 0.22 0.35
0.00 0.00 0.00 0.00 0.00 0.00 0.00 0.02 0.10 0.27 0.09 0.19 0.73 0.22 0.43 0.24 0.03 0.00 0.00 0.00 0.00 0.02 0.03 0.08 0.16 0.24 0.29
0.01 0.00 0.00 0.00 0.00 0.00 0.00 0.00 0.01 0.01 0.03 0.03 0.26 0.25 0.44 0.46 0.24 0.04 0.07 0.02 0.01 0.08 0.14 0.22 0.25 0.27 0.32
0.01 0.00 0.00 0.00 0.00 0.00 0.03 0.01 0.06 0.00 0.00 0.01 0.06 0.24 0.43 0.22 0.37 0.24 0.06 0.20 0.08 0.09 0.22 0.17 0.16 0.23 0.31
0.02 0.02 0.01 0.00 0.00 0.00 0.04 0.09 0.12 0.04 0.02 0.00 0.00 0.02 0.09 0.16 0.34 0.13 0.08 0.09 0.19 0.31 0.29 0.24 0.11 0.24 0.28
0.03 0.04 0.07 0.05 0.06 0.03 0.03 0.09 0.12 0.04 0.04 0.02 0.02 0.08 0.03 0.01 0.11 0.24 0.27 0.20 0.20 0.23 0.24 0.53 0.26 0.16 0.14
0.05 0.07 0.14 0.10 0.05 0.05 0.04 0.06 0.05 0.04 0.04 0.04 0.12 0.33 0.42 0.11 0.03 0.19 0.62 0.46 0.24 0.24 0.28 0.43 0.55 0.41 0.33

GFSFLT2_prec_precacc_069.txt.gz
Total_Precipitation_Accumulation
0.63 0.54 0.48 0.44 0.47 0.42 0.39 0.37 0.38 0.53 0.51 0.50 0.46 0.37 0.33 0.30 0.29 0.28 0.27 0.31 0.36 0.42 0.50 0.59 0.65 0.66 0.65
0.67 0.63 0.58 0.52 0.47 0.39 0.33 0.30 0.29 0.35 0.32 0.25 0.18 0.14 0.14 0.14 0.16 0.18 0.22 0.24 0.28 0.31 0.33 0.32 0.31 0.30 0.33
0.61 0.55 0.49 0.44 0.37 0.26 0.24 0.21 0.18 0.19 0.16 0.12 0.10 0.09 0.09 0.12 0.13 0.14 0.12 0.11 0.11 0.10 0.10 0.10 0.10 0.13 0.16
0.36 0.31 0.25 0.20 0.16 0.12 0.09 0.06 0.03 0.03 0.03 0.02 0.02 0.01 0.02 0.02 0.02 0.01 0.00 0.01 0.01 0.01 0.03 0.05 0.07 0.09 0.10
0.26 0.21 0.12 0.05 0.04 0.03 0.03 0.03 0.01 0.00 0.00 0.00 0.00 0.00 0.00 0.00 0.00 0.00 0.00 0.01 0.03 0.07 0.11 0.14 0.16 0.19 0.20
0.19 0.07 0.02 0.01 0.01 0.03 0.06 0.06 0.06 0.00 0.00 0.00 0.00 0.00 0.00 0.00 0.00 0.01 0.01 0.02 0.03 0.06 0.09 0.12 0.13 0.15 0.19
0.02 0.00 0.01 0.03 0.10 0.10 0.08 0.11 0.06 0.00 0.02 0.02 0.00 0.00 0.00 0.00 0.00 0.00 0.01 0.01 0.02 0.05 0.09 0.10 0.11 0.12 0.14
0.00 0.01 0.04 0.04 0.07 0.17 0.10 0.07 0.02 0.00 0.00 0.04 0.00 0.00 0.00 0.00 0.00 0.00 0.00 0.01 0.02 0.04 0.08 0.11 0.16 0.19 0.21
0.02 0.02 0.01 0.01 0.00 0.06 0.07 0.07 0.05 0.00 0.00 0.01 0.00 0.00 0.00 0.00 0.00 0.00 0.00 0.01 0.01 0.02 0.04 0.05 0.07 0.09 0.09
0.00 0.00 0.00 0.00 0.00 0.01 0.07 0.25 0.14 0.13 0.00 0.14 0.07 0.05 0.20 0.01 0.00 0.00 0.00 0.00 0.00 0.01 0.02 0.03 0.06 0.09 0.12
0.00 0.00 0.00 0.00 0.00 0.00 0.02 0.21 0.40 0.27 0.00 0.39 0.45 0.05 0.25 0.08 0.00 0.00 0.00 0.00 0.00 0.00 0.01 0.04 0.11 0.22 0.35
0.00 0.00 0.00 0.00 0.00 0.00 0.00 0.02 0.10 0.27 0.09 0.19 0.73 0.22 0.43 0.24 0.03 0.00 0.00 0.00 0.00 0.02 0.03 0.08 0.16 0.24 0.29
0.01 0.00 0.00 0.00 0.00 0.00 0.00 0.00 0.01 0.01 0.03 0.03 0.26 0.25 0.44 0.46 0.24 0.04 0.07 0.02 0.01 0.08 0.14 0.22 0.25 0.27 0.32
0.01 0.00 0.00 0.00 0.00 0.00 0.03 0.01 0.06 0.00 0.00 0.01 0.06 0.24 0.43 0.22 0.37 0.24 0.06 0.20 0.08 0.09 0.22 0.17 0.16 0.23 0.31
0.02 0.02 0.01 0.00 0.00 0.00 0.04 0.09 0.12 0.04 0.02 0.00 0.00 0.02 0.09 0.16 0.34 0.13 0.08 0.09 0.19 0.31 0.29 0.24 0.11 0.24 0.28
0.03 0.04 0.07 0.05 0.06 0.03 0.03 0.09 0.12 0.04 0.04 0.02 0.02 0.08 0.03 0.01 0.11 0.24 0.27 0.20 0.20 0.23 0.24 0.53 0.26 0.16 0.14
0.05 0.07 0.14 0.10 0.05 0.05 0.04 0.06 0.05 0.04 0.04 0.04 0.12 0.33 0.42 0.11 0.03 0.19 0.62 0.46 0.24 0.24 0.28 0.43 0.55 0.41 0.33

GFSFLT2_prec_precacc_072.txt.gz
Total_Precipitation_Accumulation
0.65 0.56 0.49 0.44 0.47 0.42 0.39 0.37 0.38 0.53 0.51 0.51 0.46 0.37 0.34 0.31 0.29 0.28 0.27 0.31 0.37 0.43 0.50 0.60 0.66 0.66 0.66
0.67 0.63 0.58 0.52 0.47 0.39 0.33 0.30 0.29 0.35 0.33 0.25 0.18 0.14 0.14 0.14 0.16 0.19 0.22 0.25 0.28 0.31 0.33 0.33 0.31 0.30 0.33
0.61 0.55 0.49 0.44 0.37 0.26 0.24 0.21 0.18 0.19 0.16 0.12 0.10 0.09 0.09 0.12 0.13 0.14 0.12 0.11 0.11 0.10 0.10 0.10 0.10 0.13 0.16
0.36 0.31 0.25 0.20 0.16 0.12 0.09 0.06 0.03 0.03 0.03 0.02 0.02 0.01 0.02 0.02 0.02 0.01 0.00 0.01 0.01 0.01 0.03 0.05 0.07 0.09 0.10
0.26 0.21 0.12 0.05 0.04 0.03 0.03 0.03 0.01 0.00 0.00 0.00 0.00 0.00 0.00 0.00 0.00 0.00 0.00 0.01 0.03 0.07 0.11 0.14 0.16 0.19 0.20
0.19 0.07 0.02 0.01 0.01 0.03 0.06 0.06 0.06 0.00 0.00 0.00 0.00 0.00 0.00 0.00 0.00 0.01 0.01 0.02 0.03 0.06 0.09 0.12 0.13 0.15 0.19
0.02 0.00 0.01 0.03 0.10 0.10 0.08 0.11 0.06 0.00 0.02 0.02 0.00 0.00 0.00 0.00 0.00 0.00 0.01 0.01 0.02 0.05 0.09 0.10 0.11 0.12 0.14
0.00 0.01 0.04 0.04 0.07 0.17 0.10 0.07 0.02 0.00 0.00 0.04 0.00 0.00 0.00 0.00 0.00 0.00 0.00 0.01 0.02 0.04 0.08 0.11 0.16 0.19 0.21
0.02 0.02 0.01 0.01 0.00 0.06 0.07 0.07 0.05 0.00 0.00 0.01 0.00 0.00 0.00 0.00 0.00 0.00 0.00 0.01 0.01 0.02 0.04 0.05 0.07 0.09 0.09
0.00 0.00 0.00 0.00 0.00 0.01 0.07 0.25 0.14 0.13 0.00 0.14 0.07 0.05 0.20 0.01 0.00 0.00 0.00 0.00 0.00 0.01 0.02 0.03 0.06 0.09 0.12
0.00 0.00 0.00 0.00 0.00 0.00 0.02 0.21 0.40 0.27 0.00 0.39 0.45 0.05 0.25 0.08 0.00 0.00 0.00 0.00 0.00 0.00 0.01 0.04 0.11 0.22 0.35
0.00 0.00 0.00 0.00 0.00 0.00 0.00 0.02 0.10 0.27 0.09 0.19 0.73 0.22 0.43 0.24 0.03 0.00 0.00 0.00 0.00 0.02 0.03 0.08 0.16 0.24 0.29
0.01 0.00 0.00 0.00 0.00 0.00 0.00 0.00 0.01 0.01 0.03 0.03 0.26 0.25 0.44 0.46 0.24 0.04 0.07 0.02 0.01 0.08 0.14 0.22 0.25 0.27 0.32
0.01 0.00 0.00 0.00 0.00 0.00 0.03 0.01 0.06 0.00 0.00 0.01 0.06 0.24 0.43 0.22 0.37 0.24 0.06 0.20 0.08 0.09 0.22 0.17 0.16 0.23 0.31
0.02 0.02 0.01 0.00 0.00 0.00 0.04 0.09 0.12 0.04 0.02 0.00 0.00 0.02 0.09 0.16 0.34 0.13 0.08 0.09 0.19 0.31 0.29 0.24 0.11 0.24 0.28
0.03 0.04 0.07 0.05 0.06 0.03 0.03 0.09 0.12 0.04 0.04 0.02 0.02 0.08 0.03 0.01 0.11 0.24 0.27 0.20 0.20 0.23 0.24 0.54 0.26 0.16 0.14
0.05 0.07 0.14 0.10 0.05 0.05 0.04 0.06 0.05 0.04 0.04 0.04 0.12 0.33 0.42 0.12 0.03 0.19 0.62 0.46 0.24 0.24 0.28 0.43 0.55 0.41 0.33

GFSFLT2_prec_precacc_075.txt.gz
Total_Precipitation_Accumulation
0.66 0.57 0.50 0.46 0.49 0.42 0.39 0.37 0.38 0.53 0.51 0.51 0.46 0.37 0.34 0.31 0.30 0.29 0.28 0.31 0.37 0.44 0.52 0.62 0.68 0.68 0.67
0.68 0.64 0.59 0.52 0.47 0.39 0.33 0.30 0.29 0.35 0.33 0.25 0.18 0.14 0.15 0.14 0.17 0.19 0.22 0.25 0.28 0.31 0.33 0.33 0.32 0.31 0.33
0.61 0.55 0.49 0.44 0.37 0.26 0.24 0.21 0.18 0.19 0.16 0.12 0.10 0.09 0.09 0.12 0.13 0.14 0.13 0.11 0.11 0.10 0.10 0.10 0.10 0.13 0.16
0.36 0.31 0.25 0.20 0.16 0.12 0.09 0.06 0.03 0.03 0.03 0.02 0.02 0.01 0.02 0.02 0.02 0.01 0.00 0.01 0.01 0.01 0.03 0.05 0.07 0.09 0.10
0.26 0.21 0.12 0.05 0.04 0.03 0.03 0.03 0.01 0.00 0.00 0.00 0.00 0.00 0.00 0.00 0.00 0.00 0.00 0.01 0.03 0.07 0.11 0.14 0.16 0.19 0.20
0.19 0.07 0.02 0.01 0.01 0.03 0.06 0.06 0.06 0.00 0.00 0.00 0.00 0.00 0.00 0.00 0.00 0.01 0.01 0.02 0.03 0.06 0.09 0.12 0.13 0.15 0.19
0.02 0.00 0.01 0.03 0.10 0.10 0.08 0.11 0.06 0.00 0.02 0.02 0.00 0.00 0.00 0.00 0.00 0.00 0.01 0.01 0.02 0.05 0.09 0.10 0.11 0.12 0.14
0.00 0.01 0.04 0.04 0.07 0.17 0.10 0.07 0.02 0.00 0.00 0.04 0.00 0.00 0.00 0.00 0.00 0.00 0.00 0.01 0.02 0.04 0.08 0.11 0.16 0.19 0.21
0.03 0.02 0.01 0.01 0.00 0.06 0.07 0.07 0.05 0.00 0.00 0.01 0.00 0.00 0.00 0.00 0.00 0.00 0.00 0.01 0.01 0.02 0.04 0.05 0.07 0.09 0.09
0.00 0.00 0.00 0.00 0.00 0.01 0.07 0.25 0.14 0.13 0.00 0.14 0.07 0.05 0.20 0.01 0.00 0.00 0.00 0.00 0.00 0.01 0.02 0.03 0.06 0.09 0.12
0.00 0.00 0.00 0.00 0.00 0.00 0.02 0.21 0.40 0.27 0.00 0.39 0.45 0.05 0.25 0.08 0.00 0.00 0.00 0.00 0.00 0.00 0.01 0.04 0.11 0.22 0.35
0.00 0.00 0.00 0.00 0.00 0.00 0.00 0.02 0.10 0.27 0.09 0.19 0.73 0.22 0.43 0.24 0.03 0.00 0.00 0.00 0.00 0.02 0.03 0.08 0.16 0.24 0.29
0.01 0.00 0.00 0.00 0.00 0.00 0.00 0.00 0.01 0.01 0.03 0.03 0.26 0.25 0.44 0.46 0.24 0.04 0.07 0.02 0.01 0.08 0.14 0.22 0.25 0.27 0.32
0.01 0.00 0.00 0.00 0.00 0.00 0.03 0.01 0.06 0.00 0.00 0.01 0.06 0.24 0.43 0.22 0.37 0.24 0.06 0.20 0.08 0.09 0.22 0.17 0.16 0.23 0.31
0.02 0.02 0.01 0.00 0.00 0.00 0.04 0.09 0.12 0.04 0.02 0.00 0.00 0.02 0.09 0.16 0.35 0.13 0.08 0.09 0.19 0.31 0.29 0.24 0.11 0.24 0.28
0.03 0.04 0.07 0.05 0.06 0.03 0.03 0.09 0.12 0.04 0.04 0.02 0.02 0.08 0.03 0.01 0.11 0.24 0.27 0.20 0.20 0.23 0.24 0.54 0.26 0.16 0.14
0.05 0.07 0.14 0.10 0.05 0.05 0.04 0.06 0.05 0.04 0.04 0.04 0.12 0.33 0.42 0.12 0.03 0.19 0.62 0.46 0.24 0.24 0.28 0.43 0.55 0.41 0.33

GFSFLT2_prec_precacc_078.txt.gz
Total_Precipitation_Accumulation
0.66 0.57 0.50 0.46 0.49 0.43 0.40 0.37 0.38 0.53 0.51 0.51 0.46 0.37 0.34 0.31 0.30 0.29 0.28 0.31 0.38 0.45 0.53 0.64 0.71 0.73 0.74
0.70 0.66 0.60 0.53 0.47 0.40 0.34 0.30 0.29 0.35 0.33 0.25 0.18 0.15 0.15 0.14 0.17 0.19 0.22 0.25 0.28 0.31 0.34 0.34 0.33 0.33 0.38
0.61 0.55 0.50 0.45 0.37 0.27 0.24 0.21 0.18 0.19 0.16 0.12 0.10 0.09 0.09 0.12 0.13 0.14 0.13 0.11 0.11 0.10 0.10 0.10 0.10 0.13 0.16
0.37 0.32 0.25 0.21 0.16 0.12 0.09 0.06 0.03 0.03 0.03 0.02 0.02 0.01 0.02 0.02 0.02 0.01 0.00 0.01 0.01 0.01 0.03 0.05 0.07 0.09 0.10
0.26 0.21 0.12 0.05 0.04 0.03 0.03 0.03 0.01 0.00 0.00 0.00 0.00 0.00 0.00 0.00 0.00 0.00 0.00 0.01 0.03 0.07 0.11 0.14 0.16 0.19 0.20
0.19 0.07 0.02 0.02 0.01 0.03 0.06 0.06 0.06 0.00 0.00 0.00 0.00 0.00 0.00 0.00 0.00 0.01 0.01 0.02 0.03 0.06 0.09 0.12 0.13 0.15 0.19
0.02 0.00 0.01 0.03 0.10 0.10 0.08 0.11 0.06 0.00 0.02 0.02 0.00 0.00 0.00 0.00 0.00 0.00 0.01 0.01 0.02 0.05 0.09 0.10 0.11 0.12 0.14
0.00 0.01 0.04 0.04 0.07 0.17 0.10 0.07 0.02 0.00 0.00 0.04 0.00 0.00 0.00 0.00 0.00 0.00 0.00 0.01 0.02 0.04 0.08 0.11 0.16 0.19 0.21
0.03 0.02 0.01 0.01 0.00 0.06 0.07 0.07 0.05 0.00 0.00 0.01 0.00 0.00 0.00 0.00 0.00 0.00 0.00 0.01 0.01 0.02 0.04 0.05 0.07 0.09 0.09
0.01 0.00 0.00 0.00 0.00 0.01 0.07 0.25 0.14 0.13 0.00 0.14 0.07 0.05 0.20 0.01 0.00 0.00 0.00 0.00 0.00 0.01 0.02 0.03 0.06 0.09 0.12
0.00 0.00 0.00 0.00 0.00 0.00 0.02 0.21 0.40 0.27 0.00 0.39 0.45 0.05 0.25 0.08 0.00 0.00 0.00 0.00 0.00 0.00 0.01 0.04 0.11 0.22 0.35
0.00 0.00 0.00 0.00 0.00 0.00 0.00 0.02 0.10 0.27 0.09 0.19 0.73 0.22 0.43 0.24 0.03 0.00 0.00 0.00 0.00 0.02 0.03 0.08 0.16 0.24 0.29
0.01 0.00 0.00 0.00 0.00 0.00 0.00 0.00 0.01 0.01 0.03 0.03 0.26 0.25 0.44 0.46 0.24 0.04 0.07 0.02 0.01 0.08 0.14 0.22 0.25 0.27 0.32
0.01 0.00 0.00 0.00 0.00 0.00 0.03 0.01 0.06 0.00 0.00 0.01 0.06 0.24 0.43 0.22 0.37 0.24 0.06 0.20 0.08 0.09 0.22 0.17 0.16 0.23 0.31
0.02 0.02 0.01 0.00 0.00 0.00 0.04 0.09 0.12 0.04 0.02 0.00 0.00 0.02 0.09 0.16 0.35 0.13 0.08 0.09 0.19 0.31 0.29 0.24 0.11 0.24 0.28
0.03 0.04 0.07 0.05 0.06 0.03 0.03 0.09 0.12 0.04 0.04 0.02 0.02 0.08 0.03 0.01 0.11 0.24 0.27 0.20 0.20 0.23 0.24 0.54 0.26 0.16 0.14
0.05 0.07 0.14 0.10 0.05 0.05 0.04 0.06 0.05 0.04 0.04 0.04 0.12 0.33 0.42 0.12 0.03 0.19 0.62 0.46 0.24 0.24 0.28 0.43 0.55 0.41 0.33

GFSFLT2_prec_precacc_081.txt.gz
Total_Precipitation_Accumulation
0.66 0.57 0.50 0.46 0.49 0.44 0.41 0.38 0.40 0.55 0.52 0.51 0.46 0.37 0.35 0.31 0.30 0.29 0.28 0.31 0.38 0.46 0.54 0.65 0.72 0.75 0.78
0.70 0.66 0.60 0.54 0.48 0.41 0.34 0.31 0.29 0.36 0.33 0.25 0.18 0.15 0.15 0.14 0.17 0.19 0.22 0.25 0.28 0.32 0.34 0.35 0.34 0.34 0.42
0.61 0.55 0.50 0.45 0.38 0.27 0.24 0.21 0.18 0.19 0.16 0.12 0.10 0.09 0.09 0.12 0.13 0.14 0.13 0.11 0.11 0.10 0.10 0.10 0.11 0.13 0.17
0.37 0.32 0.25 0.21 0.17 0.12 0.09 0.06 0.03 0.03 0.03 0.02 0.02 0.01 0.02 0.02 0.02 0.01 0.00 0.01 0.01 0.01 0.03 0.05 0.07 0.09 0.10
0.27 0.21 0.12 0.05 0.04 0.03 0.04 0.03 0.01 0.00 0.00 0.00 0.00 0.00 0.00 0.00 0.00 0.00 0.00 0.01 0.03 0.07 0.11 0.14 0.16 0.19 0.20
0.20 0.07 0.02 0.02 0.01 0.03 0.06 0.06 0.06 0.00 0.00 0.00 0.00 0.00 0.00 0.00 0.00 0.01 0.01 0.02 0.03 0.06 0.09 0.12 0.13 0.15 0.19
0.02 0.00 0.01 0.03 0.10 0.10 0.08 0.11 0.06 0.00 0.02 0.02 0.00 0.00 0.00 0.00 0.00 0.00 0.01 0.01 0.02 0.05 0.09 0.10 0.11 0.12 0.14
0.00 0.01 0.04 0.04 0.07 0.17 0.10 0.07 0.02 0.00 0.00 0.04 0.00 0.00 0.00 0.00 0.00 0.00 0.00 0.01 0.02 0.04 0.08 0.11 0.16 0.19 0.21
0.03 0.02 0.01 0.01 0.00 0.06 0.07 0.08 0.05 0.00 0.00 0.01 0.00 0.00 0.00 0.00 0.00 0.00 0.00 0.01 0.01 0.02 0.04 0.05 0.07 0.09 0.09
0.01 0.00 0.00 0.00 0.00 0.01 0.07 0.25 0.14 0.13 0.00 0.14 0.07 0.05 0.20 0.01 0.00 0.00 0.00 0.00 0.00 0.01 0.02 0.03 0.06 0.09 0.12
0.00 0.00 0.00 0.00 0.00 0.00 0.02 0.22 0.41 0.27 0.00 0.39 0.45 0.05 0.25 0.08 0.00 0.00 0.00 0.00 0.00 0.00 0.01 0.04 0.11 0.22 0.35
0.00 0.00 0.00 0.00 0.00 0.00 0.00 0.02 0.10 0.27 0.09 0.19 0.73 0.22 0.43 0.25 0.03 0.00 0.00 0.00 0.00 0.02 0.03 0.08 0.16 0.24 0.29
0.01 0.00 0.00 0.00 0.00 0.00 0.00 0.00 0.01 0.01 0.03 0.03 0.26 0.25 0.44 0.46 0.24 0.04 0.07 0.02 0.01 0.08 0.14 0.22 0.25 0.27 0.32
0.01 0.00 0.00 0.00 0.00 0.00 0.03 0.01 0.06 0.00 0.00 0.01 0.06 0.24 0.43 0.22 0.37 0.24 0.06 0.20 0.08 0.09 0.22 0.17 0.16 0.23 0.31
0.02 0.02 0.01 0.00 0.00 0.00 0.04 0.09 0.12 0.04 0.02 0.00 0.00 0.02 0.09 0.16 0.35 0.13 0.08 0.09 0.19 0.31 0.29 0.24 0.11 0.24 0.28
0.03 0.04 0.07 0.05 0.06 0.03 0.03 0.09 0.12 0.04 0.04 0.02 0.02 0.08 0.03 0.01 0.11 0.24 0.27 0.20 0.20 0.23 0.24 0.54 0.26 0.16 0.14
0.05 0.07 0.14 0.10 0.05 0.05 0.04 0.06 0.05 0.04 0.04 0.04 0.12 0.33 0.42 0.12 0.03 0.19 0.62 0.46 0.24 0.24 0.28 0.43 0.55 0.41 0.33

GFSFLT2_prec_precacc_084.txt.gz
Total_Precipitation_Accumulation
0.66 0.57 0.50 0.46 0.49 0.44 0.41 0.38 0.40 0.57 0.52 0.51 0.46 0.37 0.35 0.32 0.31 0.29 0.28 0.31 0.38 0.47 0.55 0.67 0.74 0.76 0.80
0.70 0.66 0.60 0.54 0.48 0.41 0.34 0.31 0.30 0.38 0.33 0.25 0.18 0.15 0.15 0.15 0.17 0.19 0.22 0.25 0.28 0.32 0.34 0.35 0.37 0.36 0.48
0.61 0.55 0.50 0.45 0.38 0.27 0.24 0.21 0.18 0.21 0.16 0.12 0.10 0.09 0.09 0.12 0.13 0.14 0.13 0.11 0.11 0.10 0.10 0.11 0.12 0.16 0.20
0.37 0.32 0.25 0.21 0.17 0.12 0.09 0.06 0.04 0.03 0.03 0.02 0.02 0.01 0.02 0.02 0.02 0.01 0.00 0.01 0.01 0.01 0.03 0.05 0.07 0.10 0.11
0.27 0.21 0.12 0.05 0.04 0.03 0.04 0.03 0.01 0.00 0.00 0.00 0.00 0.00 0.00 0.00 0.00 0.00 0.00 0.01 0.03 0.07 0.11 0.14 0.16 0.19 0.20
0.20 0.07 0.02 0.02 0.01 0.03 0.06 0.06 0.06 0.00 0.00 0.00 0.00 0.00 0.00 0.00 0.00 0.01 0.01 0.02 0.03 0.06 0.09 0.12 0.13 0.15 0.19
0.02 0.00 0.01 0.03 0.10 0.10 0.08 0.11 0.06 0.00 0.02 0.02 0.00 0.00 0.00 0.00 0.00 0.00 0.01 0.01 0.02 0.05 0.09 0.10 0.11 0.12 0.14
0.00 0.01 0.04 0.04 0.07 0.17 0.10 0.07 0.02 0.00 0.01 0.04 0.00 0.00 0.00 0.00 0.00 0.00 0.00 0.01 0.02 0.04 0.08 0.11 0.16 0.19 0.21
0.03 0.02 0.01 0.01 0.00 0.06 0.07 0.08 0.06 0.00 0.00 0.01 0.01 0.00 0.00 0.00 0.00 0.00 0.00 0.01 0.01 0.02 0.04 0.05 0.07 0.09 0.09
0.01 0.00 0.00 0.00 0.00 0.01 0.07 0.25 0.14 0.13 0.00 0.14 0.07 0.05 0.20 0.01 0.00 0.00 0.00 0.00 0.00 0.01 0.02 0.03 0.06 0.09 0.12
0.00 0.00 0.00 0.00 0.00 0.00 0.02 0.22 0.41 0.27 0.00 0.39 0.45 0.05 0.25 0.08 0.00 0.00 0.00 0.00 0.00 0.00 0.01 0.04 0.11 0.22 0.35
0.00 0.00 0.00 0.00 0.00 0.00 0.00 0.02 0.10 0.27 0.09 0.19 0.73 0.22 0.43 0.25 0.03 0.00 0.00 0.00 0.00 0.02 0.03 0.08 0.16 0.24 0.29
0.01 0.00 0.00 0.00 0.00 0.00 0.00 0.00 0.01 0.01 0.03 0.03 0.26 0.25 0.44 0.46 0.24 0.04 0.07 0.02 0.01 0.08 0.14 0.22 0.25 0.27 0.32
0.01 0.00 0.00 0.00 0.00 0.00 0.03 0.01 0.06 0.00 0.00 0.01 0.06 0.24 0.43 0.22 0.37 0.24 0.06 0.20 0.08 0.09 0.22 0.17 0.16 0.23 0.31
0.02 0.02 0.01 0.00 0.00 0.00 0.04 0.09 0.12 0.04 0.02 0.00 0.00 0.02 0.09 0.16 0.35 0.13 0.08 0.09 0.19 0.31 0.29 0.24 0.11 0.24 0.28
0.03 0.04 0.07 0.05 0.06 0.03 0.03 0.09 0.12 0.04 0.04 0.02 0.02 0.08 0.03 0.01 0.11 0.24 0.27 0.20 0.20 0.23 0.24 0.54 0.26 0.16 0.14
0.05 0.07 0.14 0.10 0.05 0.05 0.04 0.06 0.05 0.04 0.04 0.04 0.12 0.33 0.42 0.12 0.03 0.19 0.62 0.46 0.24 0.24 0.28 0.43 0.55 0.41 0.33

GFSFLT2_prec_precacc_087.txt.gz
Total_Precipitation_Accumulation
0.66 0.57 0.50 0.46 0.49 0.44 0.41 0.38 0.41 0.57 0.52 0.52 0.47 0.38 0.35 0.32 0.31 0.29 0.29 0.31 0.38 0.47 0.55 0.67 0.74 0.78 0.81
0.70 0.66 0.60 0.54 0.48 0.41 0.34 0.31 0.30 0.40 0.34 0.25 0.18 0.15 0.15 0.15 0.17 0.19 0.22 0.25 0.28 0.32 0.34 0.36 0.38 0.39 0.50
0.61 0.55 0.50 0.45 0.38 0.27 0.24 0.21 0.18 0.22 0.16 0.12 0.10 0.09 0.09 0.12 0.13 0.14 0.13 0.11 0.11 0.10 0.10 0.11 0.16 0.21 0.23
0.37 0.32 0.25 0.21 0.17 0.12 0.09 0.06 0.04 0.03 0.03 0.02 0.02 0.01 0.02 0.02 0.02 0.01 0.00 0.01 0.01 0.01 0.03 0.05 0.08 0.14 0.16
0.27 0.21 0.12 0.05 0.04 0.03 0.04 0.03 0.01 0.00 0.00 0.00 0.00 0.00 0.00 0.00 0.00 0.00 0.00 0.01 0.03 0.07 0.11 0.14 0.16 0.19 0.20
0.20 0.07 0.02 0.02 0.01 0.03 0.06 0.06 0.06 0.00 0.00 0.00 0.00 0.00 0.00 0.00 0.00 0.01 0.01 0.02 0.03 0.06 0.09 0.12 0.13 0.15 0.19
0.02 0.00 0.01 0.03 0.10 0.10 0.08 0.11 0.06 0.00 0.02 0.02 0.00 0.00 0.00 0.00 0.00 0.00 0.01 0.01 0.02 0.05 0.09 0.10 0.11 0.12 0.14
0.00 0.01 0.04 0.04 0.07 0.17 0.10 0.07 0.02 0.00 0.01 0.04 0.00 0.00 0.00 0.00 0.00 0.00 0.00 0.01 0.02 0.04 0.08 0.11 0.16 0.19 0.21
0.03 0.02 0.01 0.01 0.00 0.06 0.07 0.08 0.06 0.00 0.00 0.01 0.01 0.00 0.00 0.00 0.00 0.00 0.00 0.01 0.01 0.02 0.04 0.05 0.07 0.09 0.09
0.01 0.00 0.00 0.00 0.00 0.01 0.07 0.25 0.14 0.13 0.00 0.14 0.07 0.05 0.20 0.01 0.00 0.00 0.00 0.00 0.00 0.01 0.02 0.03 0.06 0.09 0.12
0.00 0.00 0.00 0.00 0.00 0.00 0.02 0.22 0.41 0.27 0.00 0.39 0.45 0.05 0.25 0.08 0.00 0.00 0.00 0.00 0.00 0.00 0.01 0.04 0.11 0.22 0.35
0.00 0.00 0.00 0.00 0.00 0.00 0.00 0.02 0.10 0.27 0.09 0.19 0.73 0.22 0.43 0.25 0.03 0.00 0.00 0.00 0.00 0.02 0.03 0.08 0.16 0.24 0.29
0.01 0.00 0.00 0.00 0.00 0.00 0.00 0.00 0.01 0.01 0.03 0.03 0.26 0.25 0.44 0.46 0.24 0.04 0.07 0.02 0.01 0.08 0.14 0.22 0.25 0.27 0.32
0.01 0.00 0.00 0.00 0.00 0.00 0.03 0.01 0.06 0.00 0.00 0.01 0.06 0.24 0.43 0.22 0.37 0.24 0.06 0.20 0.08 0.09 0.22 0.17 0.16 0.23 0.31
0.02 0.02 0.01 0.00 0.00 0.00 0.04 0.09 0.12 0.04 0.02 0.00 0.00 0.02 0.09 0.16 0.35 0.13 0.08 0.09 0.19 0.31 0.29 0.24 0.11 0.24 0.28
0.03 0.04 0.07 0.05 0.06 0.03 0.03 0.09 0.12 0.04 0.04 0.02 0.02 0.08 0.03 0.01 0.11 0.24 0.27 0.20 0.20 0.23 0.24 0.54 0.26 0.16 0.14
0.05 0.07 0.14 0.10 0.05 0.05 0.04 0.06 0.05 0.04 0.04 0.04 0.12 0.33 0.42 0.12 0.03 0.19 0.62 0.46 0.24 0.24 0.28 0.43 0.55 0.41 0.33

GFSFLT2_prec_precacc_090.txt.gz
Total_Precipitation_Accumulation
0.66 0.57 0.50 0.46 0.49 0.44 0.41 0.38 0.41 0.57 0.52 0.52 0.47 0.38 0.35 0.32 0.31 0.30 0.29 0.31 0.38 0.47 0.55 0.67 0.75 0.78 0.81
0.70 0.66 0.60 0.54 0.48 0.41 0.34 0.31 0.30 0.40 0.34 0.25 0.18 0.15 0.15 0.15 0.17 0.19 0.22 0.25 0.28 0.32 0.34 0.36 0.39 0.41 0.51
0.61 0.55 0.50 0.45 0.38 0.27 0.24 0.21 0.18 0.22 0.16 0.12 0.10 0.09 0.09 0.12 0.13 0.14 0.13 0.11 0.11 0.10 0.10 0.11 0.18 0.25 0.25
0.37 0.32 0.25 0.21 0.17 0.12 0.09 0.06 0.04 0.03 0.03 0.02 0.02 0.01 0.02 0.02 0.02 0.01 0.00 0.01 0.01 0.01 0.03 0.05 0.08 0.16 0.19
0.27 0.21 0.12 0.05 0.04 0.03 0.04 0.03 0.01 0.00 0.00 0.00 0.00 0.00 0.00 0.00 0.00 0.00 0.00 0.01 0.03 0.07 0.11 0.14 0.16 0.19 0.21
0.20 0.07 0.02 0.02 0.01 0.03 0.06 0.06 0.06 0.00 0.00 0.00 0.00 0.00 0.00 0.00 0.00 0.01 0.01 0.02 0.03 0.06 0.09 0.12 0.13 0.15 0.19
0.02 0.00 0.01 0.03 0.10 0.10 0.08 0.11 0.06 0.00 0.02 0.02 0.00 0.00 0.00 0.00 0.00 0.00 0.01 0.01 0.02 0.05 0.09 0.10 0.11 0.12 0.14
0.00 0.01 0.04 0.04 0.07 0.17 0.10 0.07 0.02 0.00 0.01 0.04 0.00 0.00 0.00 0.00 0.00 0.00 0.00 0.01 0.02 0.04 0.08 0.11 0.16 0.19 0.21
0.03 0.02 0.01 0.01 0.00 0.06 0.07 0.08 0.06 0.00 0.00 0.01 0.01 0.00 0.00 0.00 0.00 0.00 0.00 0.01 0.01 0.02 0.04 0.05 0.07 0.09 0.09
0.01 0.00 0.00 0.00 0.00 0.01 0.07 0.25 0.14 0.13 0.00 0.14 0.07 0.05 0.20 0.01 0.00 0.00 0.00 0.00 0.00 0.01 0.02 0.03 0.06 0.09 0.12
0.00 0.00 0.00 0.00 0.00 0.00 0.02 0.22 0.41 0.27 0.00 0.39 0.45 0.05 0.25 0.08 0.00 0.00 0.00 0.00 0.00 0.00 0.01 0.04 0.11 0.22 0.35
0.00 0.00 0.00 0.00 0.00 0.00 0.00 0.02 0.10 0.27 0.09 0.19 0.73 0.22 0.43 0.25 0.03 0.00 0.00 0.00 0.00 0.02 0.03 0.08 0.16 0.24 0.29
0.01 0.00 0.00 0.00 0.00 0.00 0.00 0.00 0.01 0.01 0.03 0.03 0.26 0.25 0.44 0.46 0.24 0.04 0.07 0.02 0.01 0.08 0.14 0.22 0.25 0.27 0.32
0.01 0.00 0.00 0.00 0.00 0.00 0.03 0.01 0.06 0.00 0.00 0.01 0.06 0.24 0.43 0.22 0.37 0.24 0.06 0.20 0.08 0.09 0.22 0.17 0.16 0.23 0.31
0.02 0.02 0.01 0.00 0.00 0.00 0.04 0.09 0.12 0.04 0.02 0.00 0.00 0.02 0.09 0.16 0.35 0.13 0.08 0.09 0.19 0.31 0.29 0.24 0.11 0.24 0.28
0.03 0.04 0.07 0.05 0.06 0.03 0.03 0.09 0.12 0.04 0.04 0.02 0.02 0.08 0.03 0.01 0.11 0.24 0.27 0.20 0.20 0.23 0.24 0.54 0.26 0.16 0.14
0.05 0.07 0.14 0.10 0.05 0.05 0.04 0.06 0.05 0.04 0.04 0.04 0.12 0.33 0.42 0.12 0.03 0.19 0.62 0.46 0.24 0.24 0.28 0.43 0.55 0.41 0.33

GFSFLT2_prec_precacc_093.txt.gz
Total_Precipitation_Accumulation
0.66 0.57 0.50 0.46 0.49 0.44 0.41 0.38 0.41 0.58 0.52 0.52 0.47 0.38 0.35 0.32 0.31 0.30 0.29 0.32 0.39 0.47 0.55 0.67 0.75 0.79 0.83
0.70 0.66 0.60 0.54 0.48 0.41 0.34 0.31 0.30 0.40 0.34 0.25 0.18 0.15 0.15 0.15 0.17 0.19 0.22 0.25 0.28 0.32 0.34 0.36 0.40 0.44 0.55
0.61 0.55 0.50 0.45 0.38 0.27 0.24 0.21 0.18 0.22 0.16 0.12 0.10 0.09 0.09 0.12 0.13 0.14 0.13 0.11 0.11 0.10 0.10 0.11 0.18 0.29 0.29
0.37 0.32 0.25 0.21 0.17 0.12 0.09 0.06 0.04 0.03 0.03 0.02 0.02 0.01 0.02 0.02 0.02 0.01 0.00 0.01 0.01 0.01 0.03 0.05 0.08 0.16 0.20
0.27 0.21 0.12 0.05 0.04 0.03 0.04 0.03 0.01 0.00 0.00 0.00 0.00 0.00 0.00 0.00 0.00 0.00 0.00 0.01 0.03 0.07 0.11 0.14 0.16 0.19 0.21
0.20 0.07 0.02 0.02 0.01 0.03 0.06 0.06 0.06 0.00 0.00 0.00 0.00 0.00 0.00 0.00 0.00 0.01 0.01 0.02 0.03 0.06 0.09 0.12 0.13 0.15 0.19
0.02 0.00 0.01 0.03 0.10 0.10 0.08 0.11 0.06 0.00 0.02 0.02 0.00 0.00 0.00 0.00 0.00 0.00 0.01 0.01 0.02 0.05 0.09 0.10 0.11 0.12 0.14
0.00 0.01 0.04 0.04 0.07 0.17 0.10 0.07 0.02 0.00 0.01 0.04 0.00 0.00 0.00 0.00 0.00 0.00 0.00 0.01 0.02 0.04 0.08 0.11 0.16 0.19 0.21
0.03 0.02 0.01 0.01 0.00 0.06 0.07 0.08 0.06 0.00 0.00 0.01 0.01 0.00 0.00 0.00 0.00 0.00 0.00 0.01 0.01 0.02 0.04 0.05 0.07 0.09 0.09
0.01 0.00 0.00 0.00 0.00 0.01 0.07 0.25 0.14 0.13 0.00 0.14 0.07 0.05 0.20 0.01 0.00 0.00 0.00 0.00 0.00 0.01 0.02 0.03 0.06 0.09 0.12
0.00 0.00 0.00 0.00 0.00 0.00 0.02 0.22 0.41 0.27 0.00 0.39 0.45 0.05 0.25 0.08 0.00 0.00 0.00 0.00 0.00 0.00 0.01 0.04 0.11 0.22 0.35
0.00 0.00 0.00 0.00 0.00 0.00 0.00 0.02 0.10 0.27 0.09 0.19 0.73 0.22 0.43 0.25 0.03 0.00 0.00 0.00 0.00 0.02 0.03 0.08 0.16 0.24 0.29
0.01 0.00 0.00 0.00 0.00 0.00 0.00 0.00 0.01 0.01 0.03 0.03 0.26 0.25 0.44 0.46 0.24 0.04 0.07 0.02 0.01 0.08 0.14 0.22 0.25 0.27 0.32
0.01 0.00 0.00 0.00 0.00 0.00 0.03 0.01 0.06 0.00 0.00 0.01 0.06 0.24 0.43 0.22 0.37 0.24 0.06 0.20 0.08 0.09 0.22 0.17 0.16 0.23 0.31
0.02 0.02 0.01 0.00 0.00 0.00 0.04 0.09 0.12 0.04 0.02 0.00 0.00 0.02 0.09 0.16 0.35 0.13 0.08 0.09 0.19 0.31 0.29 0.24 0.11 0.24 0.28
0.03 0.04 0.07 0.05 0.06 0.03 0.03 0.09 0.12 0.04 0.04 0.02 0.02 0.08 0.03 0.01 0.11 0.24 0.27 0.20 0.20 0.23 0.24 0.54 0.26 0.16 0.14
0.05 0.07 0.14 0.10 0.05 0.05 0.04 0.06 0.05 0.04 0.04 0.04 0.12 0.33 0.42 0.12 0.03 0.19 0.62 0.46 0.24 0.24 0.28 0.43 0.55 0.41 0.33

GFSFLT2_prec_precacc_096.txt.gz
Total_Precipitation_Accumulation
0.66 0.57 0.50 0.46 0.49 0.44 0.41 0.38 0.41 0.58 0.52 0.52 0.47 0.38 0.35 0.32 0.31 0.30 0.29 0.32 0.39 0.47 0.56 0.68 0.75 0.79 0.84
0.70 0.66 0.60 0.54 0.48 0.41 0.34 0.31 0.30 0.40 0.34 0.25 0.18 0.15 0.15 0.15 0.17 0.19 0.22 0.25 0.28 0.32 0.34 0.36 0.40 0.45 0.57
0.61 0.55 0.50 0.45 0.38 0.27 0.24 0.21 0.18 0.23 0.16 0.12 0.10 0.09 0.09 0.12 0.13 0.14 0.13 0.11 0.11 0.10 0.10 0.11 0.18 0.29 0.31
0.37 0.32 0.25 0.21 0.17 0.12 0.09 0.06 0.04 0.03 0.03 0.02 0.02 0.01 0.02 0.02 0.02 0.01 0.00 0.01 0.01 0.01 0.03 0.05 0.08 0.16 0.20
0.27 0.21 0.12 0.05 0.04 0.03 0.04 0.03 0.01 0.00 0.00 0.00 0.00 0.00 0.00 0.00 0.00 0.00 0.00 0.01 0.03 0.07 0.11 0.14 0.16 0.19 0.21
0.20 0.07 0.02 0.02 0.01 0.03 0.06 0.06 0.06 0.00 0.00 0.00 0.00 0.00 0.00 0.00 0.00 0.01 0.01 0.02 0.03 0.06 0.09 0.12 0.13 0.15 0.19
0.05 0.03 0.01 0.03 0.10 0.10 0.08 0.11 0.06 0.00 0.02 0.02 0.00 0.00 0.00 0.00 0.00 0.00 0.01 0.01 0.02 0.05 0.09 0.10 0.11 0.12 0.14
0.00 0.01 0.04 0.04 0.07 0.17 0.10 0.07 0.02 0.00 0.01 0.04 0.00 0.00 0.00 0.00 0.00 0.00 0.00 0.01 0.02 0.04 0.08 0.11 0.16 0.19 0.21
0.03 0.02 0.01 0.01 0.00 0.06 0.07 0.08 0.06 0.00 0.00 0.01 0.01 0.00 0.00 0.00 0.00 0.00 0.00 0.01 0.01 0.02 0.04 0.05 0.07 0.09 0.09
0.01 0.00 0.00 0.00 0.00 0.01 0.07 0.25 0.14 0.13 0.00 0.14 0.07 0.05 0.20 0.01 0.00 0.00 0.00 0.00 0.00 0.01 0.02 0.03 0.06 0.09 0.12
0.00 0.00 0.00 0.00 0.00 0.00 0.02 0.22 0.41 0.27 0.00 0.39 0.45 0.05 0.25 0.08 0.00 0.00 0.00 0.00 0.00 0.00 0.01 0.04 0.11 0.22 0.35
0.00 0.00 0.00 0.00 0.00 0.00 0.00 0.02 0.10 0.27 0.09 0.19 0.73 0.22 0.43 0.25 0.03 0.00 0.00 0.00 0.00 0.02 0.03 0.08 0.16 0.24 0.29
0.01 0.00 0.00 0.00 0.00 0.00 0.00 0.00 0.01 0.01 0.03 0.03 0.26 0.25 0.44 0.46 0.24 0.04 0.07 0.02 0.01 0.08 0.14 0.22 0.25 0.27 0.32
0.01 0.00 0.00 0.00 0.00 0.00 0.03 0.01 0.06 0.00 0.00 0.01 0.06 0.24 0.43 0.22 0.37 0.24 0.06 0.20 0.08 0.09 0.22 0.17 0.16 0.23 0.31
0.02 0.02 0.01 0.00 0.00 0.00 0.04 0.09 0.12 0.04 0.02 0.00 0.00 0.02 0.09 0.16 0.35 0.13 0.08 0.09 0.19 0.31 0.29 0.24 0.11 0.24 0.28
0.04 0.05 0.07 0.05 0.06 0.03 0.03 0.09 0.12 0.04 0.04 0.02 0.02 0.08 0.03 0.01 0.11 0.24 0.27 0.20 0.20 0.23 0.24 0.54 0.26 0.16 0.14
0.15 0.14 0.16 0.10 0.05 0.05 0.04 0.06 0.05 0.04 0.04 0.04 0.12 0.33 0.42 0.12 0.03 0.19 0.62 0.46 0.24 0.24 0.28 0.43 0.55 0.41 0.33

GFSFLT2_prec_precacc_099.txt.gz
Total_Precipitation_Accumulation
0.75 0.63 0.53 0.47 0.49 0.44 0.41 0.38 0.41 0.58 0.52 0.52 0.47 0.38 0.35 0.32 0.31 0.30 0.29 0.32 0.39 0.47 0.56 0.68 0.76 0.80 0.84
0.74 0.71 0.63 0.55 0.48 0.41 0.34 0.31 0.30 0.40 0.34 0.25 0.18 0.15 0.15 0.15 0.17 0.19 0.22 0.25 0.28 0.32 0.34 0.36 0.40 0.45 0.57
0.62 0.55 0.50 0.45 0.38 0.27 0.24 0.21 0.18 0.23 0.16 0.12 0.10 0.09 0.09 0.12 0.13 0.14 0.13 0.11 0.11 0.10 0.10 0.11 0.18 0.29 0.31
0.45 0.34 0.25 0.21 0.17 0.12 0.09 0.06 0.04 0.03 0.03 0.02 0.02 0.01 0.02 0.02 0.02 0.01 0.00 0.01 0.01 0.01 0.03 0.05 0.08 0.16 0.20
0.36 0.25 0.13 0.05 0.04 0.03 0.04 0.03 0.01 0.00 0.00 0.00 0.00 0.00 0.00 0.00 0.00 0.00 0.00 0.01 0.03 0.07 0.11 0.14 0.16 0.19 0.21
0.28 0.08 0.02 0.02 0.01 0.03 0.06 0.06 0.06 0.00 0.00 0.00 0.00 0.00 0.00 0.00 0.00 0.01 0.01 0.02 0.03 0.06 0.09 0.12 0.13 0.15 0.19
0.15 0.05 0.05 0.05 0.10 0.10 0.08 0.11 0.06 0.00 0.02 0.02 0.00 0.00 0.00 0.00 0.00 0.00 0.01 0.01 0.02 0.05 0.09 0.10 0.11 0.12 0.14
0.14 0.14 0.18 0.17 0.16 0.21 0.11 0.07 0.02 0.00 0.01 0.04 0.00 0.00 0.00 0.00 0.00 0.00 0.00 0.01 0.02 0.04 0.08 0.11 0.16 0.19 0.21
0.15 0.10 0.06 0.04 0.03 0.06 0.07 0.08 0.06 0.00 0.00 0.01 0.01 0.00 0.00 0.00 0.00 0.00 0.00 0.01 0.01 0.02 0.04 0.05 0.07 0.09 0.09
0.01 0.01 0.01 0.00 0.00 0.01 0.07 0.25 0.14 0.13 0.00 0.14 0.07 0.05 0.20 0.01 0.00 0.00 0.00 0.00 0.00 0.01 0.02 0.03 0.06 0.09 0.12
0.00 0.00 0.00 0.00 0.00 0.00 0.02 0.22 0.41 0.27 0.00 0.39 0.45 0.05 0.25 0.08 0.00 0.00 0.00 0.00 0.00 0.00 0.01 0.04 0.11 0.22 0.35
0.00 0.00 0.00 0.00 0.00 0.00 0.00 0.02 0.10 0.27 0.09 0.19 0.73 0.22 0.43 0.25 0.03 0.00 0.00 0.00 0.00 0.02 0.03 0.08 0.16 0.24 0.29
0.01 0.00 0.00 0.00 0.00 0.00 0.00 0.00 0.01 0.01 0.03 0.03 0.26 0.25 0.44 0.46 0.24 0.04 0.07 0.02 0.01 0.08 0.14 0.22 0.25 0.27 0.32
0.01 0.00 0.00 0.00 0.00 0.00 0.03 0.01 0.06 0.00 0.00 0.01 0.06 0.24 0.43 0.22 0.37 0.24 0.06 0.20 0.08 0.09 0.22 0.17 0.16 0.23 0.31
0.02 0.02 0.01 0.00 0.00 0.00 0.04 0.09 0.12 0.04 0.02 0.00 0.00 0.02 0.09 0.16 0.35 0.13 0.08 0.09 0.19 0.31 0.29 0.24 0.11 0.24 0.28
0.07 0.06 0.07 0.05 0.06 0.03 0.03 0.09 0.12 0.04 0.04 0.02 0.02 0.08 0.03 0.01 0.11 0.24 0.27 0.20 0.20 0.23 0.24 0.54 0.26 0.16 0.14
0.31 0.29 0.25 0.14 0.06 0.05 0.04 0.06 0.05 0.04 0.04 0.04 0.12 0.33 0.42 0.12 0.03 0.19 0.62 0.46 0.24 0.24 0.28 0.43 0.55 0.41 0.33

GFSFLT2_prec_precacc_102.txt.gz
Total_Precipitation_Accumulation
0.85 0.74 0.66 0.61 0.62 0.51 0.44 0.39 0.41 0.58 0.52 0.52 0.47 0.38 0.35 0.32 0.31 0.30 0.29 0.32 0.39 0.47 0.56 0.68 0.76 0.80 0.84
0.88 0.85 0.79 0.73 0.67 0.53 0.42 0.34 0.30 0.40 0.34 0.25 0.18 0.15 0.15 0.15 0.17 0.19 0.22 0.25 0.28 0.32 0.34 0.36 0.40 0.45 0.57
0.69 0.61 0.55 0.53 0.47 0.34 0.29 0.24 0.20 0.23 0.16 0.12 0.10 0.09 0.09 0.12 0.13 0.14 0.13 0.11 0.11 0.10 0.10 0.11 0.18 0.29 0.31
0.50 0.40 0.29 0.23 0.19 0.15 0.11 0.06 0.04 0.03 0.03 0.02 0.02 0.01 0.02 0.03 0.02 0.01 0.00 0.01 0.01 0.01 0.03 0.05 0.08 0.16 0.20
0.64 0.52 0.35 0.20 0.13 0.06 0.07 0.05 0.02 0.00 0.00 0.00 0.00 0.00 0.00 0.00 0.00 0.00 0.00 0.01 0.03 0.07 0.11 0.14 0.16 0.19 0.21
0.61 0.43 0.31 0.26 0.22 0.17 0.15 0.11 0.06 0.00 0.00 0.00 0.00 0.00 0.00 0.00 0.00 0.01 0.01 0.02 0.03 0.06 0.09 0.12 0.13 0.15 0.19
0.20 0.14 0.13 0.15 0.22 0.22 0.14 0.12 0.06 0.00 0.02 0.02 0.00 0.00 0.00 0.00 0.00 0.00 0.01 0.01 0.02 0.05 0.09 0.10 0.11 0.12 0.14
0.17 0.23 0.32 0.35 0.37 0.42 0.28 0.16 0.04 0.00 0.01 0.04 0.00 0.00 0.00 0.00 0.00 0.00 0.00 0.01 0.02 0.04 0.08 0.11 0.16 0.19 0.21
0.21 0.22 0.22 0.24 0.22 0.24 0.25 0.20 0.15 0.04 0.01 0.01 0.01 0.00 0.00 0.00 0.00 0.00 0.00 0.01 0.01 0.02 0.04 0.05 0.07 0.09 0.09
0.03 0.05 0.08 0.11 0.15 0.14 0.18 0.36 0.19 0.15 0.00 0.14 0.07 0.05 0.20 0.01 0.00 0.00 0.00 0.00 0.00 0.01 0.02 0.03 0.06 0.09 0.12
0.03 0.03 0.02 0.02 0.05 0.03 0.06 0.25 0.42 0.27 0.00 0.39 0.45 0.05 0.25 0.08 0.00 0.00 0.00 0.00 0.00 0.00 0.01 0.04 0.11 0.22 0.35
0.03 0.03 0.02 0.01 0.01 0.00 0.01 0.03 0.10 0.27 0.09 0.19 0.73 0.22 0.43 0.25 0.03 0.00 0.00 0.00 0.00 0.02 0.03 0.08 0.16 0.24 0.29
0.05 0.05 0.02 0.01 0.01 0.00 0.00 0.00 0.01 0.01 0.03 0.03 0.26 0.25 0.44 0.46 0.24 0.04 0.07 0.02 0.01 0.08 0.14 0.22 0.25 0.27 0.32
0.07 0.03 0.07 0.12 0.07 0.01 0.03 0.01 0.06 0.00 0.00 0.01 0.06 0.24 0.43 0.22 0.37 0.24 0.06 0.20 0.08 0.09 0.22 0.17 0.16 0.23 0.31
0.11 0.09 0.04 0.03 0.04 0.04 0.07 0.10 0.12 0.04 0.02 0.00 0.00 0.02 0.09 0.16 0.35 0.13 0.08 0.09 0.19 0.31 0.29 0.24 0.11 0.24 0.28
0.13 0.15 0.17 0.09 0.07 0.03 0.04 0.09 0.12 0.04 0.04 0.02 0.02 0.08 0.03 0.01 0.11 0.24 0.27 0.20 0.20 0.23 0.24 0.54 0.26 0.16 0.14
0.47 0.45 0.39 0.29 0.14 0.09 0.07 0.08 0.06 0.04 0.04 0.04 0.12 0.33 0.42 0.12 0.03 0.19 0.62 0.46 0.24 0.24 0.28 0.43 0.55 0.41 0.33

GFSFLT2_prec_precacc_105.txt.gz
Total_Precipitation_Accumulation
0.86 0.75 0.68 0.63 0.67 0.61 0.54 0.47 0.47 0.62 0.53 0.52 0.47 0.38 0.35 0.32 0.31 0.30 0.29 0.32 0.39 0.47 0.56 0.68 0.76 0.80 0.84
0.92 0.88 0.83 0.78 0.75 0.67 0.58 0.47 0.38 0.45 0.37 0.26 0.19 0.15 0.15 0.15 0.17 0.19 0.22 0.25 0.28 0.32 0.34 0.36 0.40 0.45 0.57
0.81 0.66 0.60 0.60 0.57 0.48 0.45 0.39 0.29 0.30 0.20 0.13 0.10 0.09 0.09 0.12 0.13 0.14 0.13 0.11 0.11 0.10 0.10 0.11 0.18 0.29 0.31
0.64 0.47 0.35 0.30 0.26 0.21 0.18 0.12 0.09 0.07 0.05 0.02 0.02 0.01 0.02 0.03 0.02 0.01 0.00 0.01 0.01 0.01 0.03 0.05 0.08 0.16 0.20
0.87 0.67 0.43 0.26 0.18 0.11 0.12 0.11 0.10 0.04 0.01 0.00 0.00 0.00 0.00 0.00 0.00 0.00 0.00 0.01 0.03 0.07 0.11 0.14 0.16 0.19 0.21
0.79 0.66 0.52 0.45 0.47 0.46 0.46 0.42 0.30 0.07 0.03 0.01 0.00 0.00 0.00 0.00 0.00 0.01 0.01 0.02 0.03 0.06 0.09 0.12 0.13 0.15 0.19
0.23 0.16 0.18 0.22 0.33 0.38 0.35 0.34 0.25 0.14 0.16 0.10 0.01 0.00 0.00 0.00 0.00 0.00 0.01 0.01 0.02 0.05 0.09 0.10 0.11 0.12 0.14
0.19 0.24 0.34 0.39 0.47 0.57 0.44 0.31 0.18 0.12 0.12 0.10 0.01 0.00 0.00 0.00 0.00 0.00 0.00 0.01 0.02 0.04 0.08 0.11 0.16 0.19 0.21
0.24 0.29 0.29 0.28 0.27 0.33 0.41 0.41 0.38 0.22 0.15 0.11 0.06 0.01 0.00 0.00 0.00 0.00 0.00 0.01 0.01 0.02 0.04 0.05 0.07 0.09 0.09
0.05 0.07 0.11 0.14 0.18 0.18 0.24 0.47 0.34 0.33 0.17 0.29 0.17 0.10 0.20 0.01 0.00 0.00 0.00 0.00 0.00 0.01 0.02 0.03 0.06 0.09 0.12
0.05 0.07 0.07 0.08 0.09 0.08 0.09 0.30 0.49 0.36 0.12 0.53 0.54 0.09 0.25 0.08 0.00 0.00 0.00 0.00 0.00 0.00 0.01 0.04 0.11 0.22 0.35
0.04 0.06 0.09 0.08 0.09 0.07 0.06 0.08 0.15 0.31 0.11 0.21 0.75 0.23 0.43 0.25 0.03 0.00 0.00 0.00 0.00 0.02 0.03 0.08 0.16 0.24 0.29
0.08 0.08 0.07 0.07 0.08 0.11 0.12 0.06 0.03 0.05 0.06 0.04 0.26 0.25 0.44 0.46 0.24 0.04 0.07 0.02 0.01 0.08 0.14 0.22 0.25 0.27 0.32
0.13 0.13 0.18 0.27 0.27 0.20 0.14 0.12 0.15 0.04 0.01 0.01 0.06 0.24 0.43 0.22 0.37 0.24 0.06 0.20 0.08 0.09 0.22 0.17 0.16 0.23 0.31
0.16 0.17 0.17 0.20 0.27 0.30 0.29 0.20 0.19 0.11 0.06 0.00 0.00 0.02 0.09 0.16 0.35 0.13 0.08 0.09 0.19 0.31 0.29 0.24 0.11 0.24 0.28
0.18 0.22 0.28 0.23 0.22 0.21 0.22 0.31 0.28 0.09 0.05 0.02 0.02 0.08 0.03 0.01 0.11 0.24 0.27 0.20 0.20 0.23 0.24 0.54 0.26 0.16 0.14
0.56 0.54 0.51 0.46 0.35 0.27 0.22 0.24 0.21 0.24 0.19 0.08 0.12 0.33 0.42 0.12 0.03 0.19 0.62 0.46 0.24 0.24 0.28 0.43 0.55 0.41 0.33

GFSFLT2_prec_precacc_108.txt.gz
Total_Precipitation_Accumulation
0.87 0.75 0.69 0.64 0.69 0.65 0.61 0.52 0.51 0.67 0.57 0.54 0.48 0.39 0.36 0.32 0.31 0.30 0.29 0.32 0.39 0.47 0.56 0.68 0.76 0.80 0.84
0.94 0.89 0.83 0.78 0.75 0.69 0.63 0.55 0.47 0.58 0.46 0.31 0.22 0.17 0.16 0.15 0.17 0.19 0.22 0.25 0.28 0.32 0.34 0.36 0.40 0.45 0.57
0.94 0.74 0.64 0.62 0.60 0.54 0.53 0.51 0.44 0.50 0.33 0.21 0.16 0.12 0.10 0.13 0.13 0.14 0.13 0.11 0.11 0.10 0.10 0.11 0.18 0.29 0.31
0.82 0.60 0.43 0.37 0.33 0.27 0.26 0.23 0.22 0.24 0.19 0.12 0.09 0.05 0.04 0.04 0.02 0.01 0.00 0.01 0.01 0.01 0.03 0.05 0.08 0.16 0.20
1.01 0.77 0.50 0.31 0.21 0.14 0.16 0.18 0.22 0.17 0.11 0.07 0.04 0.02 0.00 0.01 0.00 0.00 0.00 0.01 0.03 0.07 0.11 0.14 0.16 0.19 0.21
0.83 0.69 0.55 0.50 0.55 0.58 0.57 0.53 0.43 0.14 0.09 0.06 0.02 0.00 0.00 0.00 0.00 0.01 0.01 0.02 0.03 0.06 0.09 0.12 0.13 0.15 0.19
0.27 0.19 0.20 0.25 0.40 0.50 0.51 0.47 0.38 0.22 0.29 0.26 0.14 0.05 0.01 0.00 0.00 0.00 0.01 0.01 0.02 0.05 0.09 0.10 0.11 0.12 0.14
0.20 0.27 0.37 0.41 0.52 0.65 0.55 0.46 0.36 0.27 0.25 0.23 0.10 0.08 0.04 0.01 0.01 0.00 0.00 0.01 0.02 0.04 0.08 0.11 0.16 0.19 0.21
0.24 0.29 0.32 0.33 0.31 0.38 0.56 0.63 0.57 0.35 0.26 0.20 0.13 0.11 0.08 0.04 0.01 0.00 0.01 0.01 0.01 0.02 0.04 0.05 0.07 0.09 0.09
0.05 0.08 0.11 0.16 0.22 0.22 0.28 0.51 0.39 0.38 0.23 0.36 0.26 0.25 0.38 0.10 0.02 0.01 0.00 0.00 0.00 0.01 0.02 0.03 0.06 0.09 0.12
0.05 0.07 0.07 0.09 0.11 0.11 0.12 0.34 0.57 0.41 0.15 0.59 0.62 0.23 0.38 0.14 0.04 0.02 0.00 0.00 0.00 0.00 0.01 0.04 0.11 0.22 0.35
0.04 0.07 0.10 0.10 0.10 0.10 0.12 0.13 0.17 0.32 0.14 0.26 0.80 0.31 0.51 0.30 0.08 0.04 0.00 0.00 0.00 0.02 0.03 0.08 0.16 0.24 0.29
0.09 0.08 0.07 0.08 0.14 0.21 0.23 0.19 0.19 0.13 0.12 0.08 0.29 0.28 0.48 0.49 0.25 0.05 0.07 0.02 0.01 0.08 0.14 0.22 0.25 0.27 0.32
0.15 0.14 0.20 0.30 0.32 0.28 0.32 0.31 0.35 0.29 0.16 0.12 0.15 0.28 0.46 0.23 0.37 0.24 0.06 0.20 0.08 0.09 0.22 0.17 0.16 0.23 0.31
0.18 0.19 0.21 0.28 0.33 0.39 0.42 0.44 0.44 0.33 0.28 0.17 0.07 0.12 0.15 0.18 0.35 0.13 0.08 0.09 0.19 0.31 0.29 0.24 0.11 0.24 0.28
0.21 0.25 0.32 0.31 0.34 0.32 0.35 0.46 0.53 0.38 0.31 0.27 0.18 0.13 0.10 0.09 0.13 0.24 0.27 0.20 0.20 0.23 0.24 0.54 0.26 0.16 0.14
0.60 0.58 0.57 0.55 0.49 0.43 0.39 0.43 0.39 0.46 0.51 0.36 0.40 0.54 0.51 0.16 0.04 0.19 0.62 0.46 0.24 0.24 0.28 0.43 0.55 0.41 0.33

GFSFLT2_prec_precacc_111.txt.gz
Total_Precipitation_Accumulation
0.88 0.78 0.72 0.67 0.71 0.66 0.62 0.53 0.51 0.67 0.57 0.54 0.49 0.40 0.37 0.34 0.33 0.32 0.31 0.33 0.39 0.47 0.56 0.68 0.76 0.80 0.84
1.02 0.96 0.90 0.82 0.79 0.74 0.66 0.56 0.47 0.59 0.46 0.32 0.24 0.21 0.22 0.22 0.23 0.23 0.25 0.27 0.29 0.32 0.34 0.36 0.40 0.45 0.57
1.11 0.88 0.72 0.65 0.65 0.60 0.56 0.53 0.45 0.52 0.37 0.26 0.22 0.20 0.19 0.22 0.21 0.19 0.16 0.12 0.11 0.10 0.10 0.11 0.18 0.29 0.31
0.96 0.69 0.48 0.39 0.39 0.32 0.29 0.24 0.25 0.28 0.28 0.21 0.21 0.19 0.18 0.14 0.11 0.08 0.04 0.02 0.01 0.01 0.03 0.05 0.08 0.16 0.20
1.02 0.78 0.52 0.33 0.24 0.17 0.21 0.21 0.24 0.20 0.15 0.14 0.12 0.10 0.08 0.07 0.05 0.04 0.02 0.01 0.03 0.07 0.11 0.14 0.16 0.19 0.21
0.84 0.70 0.56 0.51 0.56 0.60 0.60 0.56 0.45 0.16 0.11 0.08 0.04 0.02 0.01 0.01 0.02 0.02 0.02 0.02 0.03 0.06 0.09 0.12 0.13 0.15 0.19
0.28 0.20 0.21 0.26 0.41 0.53 0.54 0.50 0.39 0.22 0.31 0.28 0.15 0.06 0.02 0.01 0.01 0.01 0.01 0.01 0.02 0.05 0.09 0.10 0.11 0.12 0.14
0.20 0.27 0.38 0.42 0.53 0.68 0.58 0.50 0.45 0.35 0.31 0.29 0.12 0.10 0.06 0.03 0.04 0.01 0.01 0.01 0.02 0.04 0.08 0.11 0.16 0.19 0.21
0.24 0.30 0.32 0.33 0.32 0.40 0.58 0.67 0.63 0.41 0.31 0.29 0.16 0.14 0.11 0.09 0.07 0.06 0.02 0.02 0.01 0.02 0.04 0.05 0.07 0.09 0.09
0.05 0.08 0.11 0.16 0.23 0.23 0.29 0.54 0.42 0.43 0.29 0.45 0.34 0.31 0.50 0.20 0.11 0.10 0.06 0.03 0.01 0.01 0.02 0.03 0.06 0.09 0.12
0.05 0.07 0.07 0.09 0.11 0.12 0.12 0.38 0.61 0.44 0.17 0.65 0.73 0.37 0.56 0.26 0.10 0.11 0.07 0.04 0.02 0.00 0.01 0.04 0.11 0.22 0.35
0.04 0.07 0.10 0.10 0.10 0.10 0.12 0.14 0.21 0.36 0.17 0.33 0.87 0.37 0.59 0.39 0.13 0.08 0.09 0.05 0.04 0.03 0.03 0.08 0.16 0.24 0.29
0.10 0.09 0.08 0.08 0.14 0.21 0.23 0.21 0.22 0.19 0.20 0.13 0.35 0.34 0.54 0.59 0.32 0.08 0.14 0.11 0.07 0.11 0.15 0.22 0.25 0.27 0.32
0.16 0.14 0.20 0.31 0.33 0.29 0.34 0.34 0.40 0.35 0.23 0.23 0.23 0.33 0.52 0.31 0.44 0.33 0.16 0.28 0.15 0.16 0.25 0.17 0.16 0.23 0.31
0.19 0.20 0.22 0.28 0.34 0.40 0.44 0.46 0.49 0.39 0.33 0.25 0.20 0.29 0.27 0.25 0.42 0.21 0.16 0.16 0.25 0.36 0.31 0.25 0.11 0.24 0.28
0.21 0.26 0.34 0.34 0.35 0.34 0.39 0.53 0.59 0.43 0.42 0.39 0.32 0.32 0.35 0.31 0.28 0.32 0.32 0.25 0.24 0.25 0.24 0.54 0.26 0.16 0.14
0.61 0.59 0.59 0.58 0.54 0.46 0.45 0.50 0.49 0.54 0.58 0.53 0.64 0.79 0.79 0.40 0.30 0.35 0.70 0.49 0.26 0.26 0.29 0.43 0.55 0.41 0.33

GFSFLT2_prec_precacc_114.txt.gz
Total_Precipitation_Accumulation
1.00 0.91 0.84 0.76 0.79 0.76 0.68 0.57 0.53 0.70 0.59 0.57 0.50 0.40 0.37 0.34 0.34 0.34 0.34 0.37 0.43 0.51 0.58 0.68 0.76 0.80 0.84
1.08 1.04 1.00 0.90 0.88 0.85 0.79 0.68 0.54 0.62 0.48 0.33 0.24 0.21 0.22 0.22 0.24 0.26 0.28 0.30 0.34 0.37 0.38 0.37 0.40 0.45 0.57
1.25 1.07 0.98 0.93 0.91 0.81 0.72 0.67 0.54 0.59 0.43 0.29 0.25 0.22 0.19 0.23 0.24 0.24 0.20 0.18 0.16 0.13 0.12 0.11 0.18 0.29 0.31
1.03 0.77 0.59 0.51 0.54 0.44 0.38 0.34 0.31 0.33 0.35 0.25 0.23 0.22 0.21 0.19 0.16 0.15 0.12 0.11 0.09 0.04 0.04 0.05 0.08 0.16 0.20
1.03 0.78 0.52 0.34 0.27 0.20 0.24 0.22 0.25 0.20 0.16 0.14 0.12 0.11 0.11 0.12 0.11 0.12 0.15 0.16 0.12 0.10 0.12 0.14 0.16 0.19 0.21
0.85 0.71 0.56 0.51 0.57 0.61 0.61 0.57 0.45 0.16 0.11 0.08 0.04 0.03 0.03 0.04 0.07 0.09 0.10 0.11 0.08 0.08 0.10 0.12 0.13 0.15 0.19
0.28 0.20 0.21 0.26 0.42 0.54 0.55 0.51 0.40 0.22 0.31 0.29 0.16 0.07 0.02 0.05 0.10 0.06 0.06 0.05 0.04 0.06 0.09 0.11 0.11 0.12 0.14
0.20 0.27 0.38 0.42 0.53 0.69 0.59 0.51 0.46 0.35 0.32 0.31 0.13 0.11 0.06 0.04 0.07 0.03 0.03 0.03 0.03 0.05 0.08 0.11 0.16 0.19 0.21
0.24 0.30 0.32 0.33 0.32 0.40 0.58 0.67 0.64 0.41 0.31 0.31 0.18 0.17 0.14 0.11 0.08 0.07 0.03 0.03 0.02 0.02 0.04 0.05 0.07 0.09 0.09
0.05 0.08 0.11 0.16 0.23 0.23 0.30 0.54 0.43 0.44 0.29 0.46 0.36 0.35 0.59 0.27 0.16 0.14 0.09 0.07 0.03 0.01 0.02 0.03 0.06 0.09 0.12
0.05 0.07 0.07 0.09 0.11 0.12 0.13 0.38 0.62 0.46 0.21 0.68 0.74 0.40 0.64 0.35 0.16 0.21 0.16 0.11 0.07 0.03 0.02 0.04 0.11 0.22 0.35
0.04 0.07 0.10 0.10 0.10 0.10 0.12 0.14 0.21 0.38 0.21 0.38 0.89 0.38 0.62 0.46 0.22 0.17 0.24 0.18 0.16 0.11 0.07 0.11 0.17 0.24 0.29
0.10 0.09 0.08 0.08 0.14 0.21 0.23 0.21 0.22 0.20 0.21 0.16 0.38 0.36 0.56 0.64 0.38 0.14 0.28 0.26 0.18 0.21 0.22 0.26 0.26 0.27 0.32
0.16 0.14 0.20 0.31 0.33 0.29 0.34 0.35 0.40 0.35 0.24 0.24 0.26 0.36 0.57 0.36 0.49 0.39 0.24 0.41 0.26 0.23 0.33 0.25 0.19 0.24 0.31
0.19 0.20 0.22 0.28 0.34 0.40 0.44 0.47 0.51 0.40 0.33 0.26 0.22 0.32 0.32 0.31 0.47 0.26 0.24 0.25 0.31 0.44 0.46 0.40 0.18 0.27 0.30
0.21 0.26 0.34 0.34 0.36 0.34 0.40 0.55 0.61 0.45 0.43 0.40 0.34 0.37 0.43 0.40 0.35 0.35 0.36 0.32 0.32 0.34 0.33 0.67 0.39 0.23 0.17
0.61 0.60 0.59 0.59 0.55 0.47 0.46 0.52 0.51 0.55 0.60 0.55 0.67 0.83 0.88 0.50 0.37 0.40 0.73 0.54 0.34 0.35 0.39 0.50 0.61 0.46 0.38

GFSFLT2_prec_precacc_117.txt.gz
Total_Precipitation_Accumulation
1.01 0.92 0.87 0.79 0.83 0.81 0.73 0.61 0.56 0.72 0.61 0.58 0.53 0.46 0.47 0.45 0.42 0.39 0.37 0.39 0.44 0.52 0.60 0.71 0.78 0.82 0.86
1.08 1.05 1.02 0.96 0.94 0.93 0.88 0.81 0.69 0.70 0.56 0.39 0.29 0.25 0.26 0.25 0.27 0.28 0.29 0.31 0.34 0.38 0.40 0.41 0.43 0.47 0.60
1.25 1.08 1.01 0.98 1.02 0.99 0.93 0.90 0.82 0.94 0.74 0.55 0.47 0.34 0.26 0.27 0.27 0.26 0.21 0.18 0.16 0.14 0.15 0.15 0.20 0.30 0.33
1.03 0.77 0.61 0.56 0.66 0.61 0.56 0.50 0.48 0.53 0.58 0.47 0.42 0.34 0.31 0.25 0.19 0.17 0.14 0.12 0.10 0.08 0.10 0.12 0.12 0.19 0.21
1.03 0.78 0.52 0.35 0.29 0.26 0.33 0.30 0.31 0.26 0.21 0.19 0.19 0.15 0.12 0.13 0.11 0.12 0.17 0.21 0.24 0.27 0.28 0.26 0.24 0.24 0.22
0.85 0.71 0.56 0.51 0.57 0.61 0.61 0.57 0.46 0.18 0.13 0.08 0.05 0.04 0.03 0.04 0.08 0.10 0.12 0.17 0.21 0.26 0.31 0.31 0.27 0.21 0.20
0.28 0.20 0.21 0.26 0.42 0.54 0.55 0.51 0.40 0.23 0.31 0.29 0.16 0.07 0.02 0.06 0.11 0.08 0.10 0.12 0.14 0.18 0.25 0.25 0.21 0.17 0.16
0.20 0.27 0.38 0.42 0.53 0.69 0.59 0.51 0.46 0.35 0.32 0.32 0.13 0.11 0.06 0.05 0.11 0.06 0.09 0.10 0.12 0.15 0.17 0.17 0.20 0.23 0.24
0.24 0.30 0.32 0.33 0.32 0.40 0.58 0.68 0.64 0.41 0.31 0.31 0.18 0.17 0.15 0.11 0.10 0.11 0.06 0.07 0.08 0.08 0.08 0.08 0.08 0.10 0.10
0.05 0.08 0.11 0.16 0.23 0.23 0.30 0.55 0.43 0.44 0.29 0.47 0.36 0.36 0.60 0.27 0.16 0.16 0.13 0.13 0.10 0.07 0.05 0.05 0.07 0.09 0.12
0.05 0.07 0.07 0.09 0.11 0.12 0.13 0.39 0.62 0.46 0.21 0.68 0.74 0.41 0.66 0.35 0.17 0.23 0.21 0.19 0.17 0.12 0.09 0.07 0.12 0.22 0.35
0.04 0.07 0.10 0.10 0.10 0.10 0.12 0.14 0.21 0.38 0.21 0.38 0.89 0.39 0.62 0.47 0.22 0.18 0.28 0.25 0.24 0.22 0.17 0.17 0.21 0.26 0.31
0.10 0.09 0.08 0.08 0.14 0.21 0.23 0.21 0.22 0.20 0.21 0.16 0.38 0.36 0.57 0.65 0.39 0.15 0.30 0.30 0.24 0.28 0.30 0.35 0.33 0.31 0.35
0.16 0.14 0.20 0.31 0.33 0.29 0.34 0.35 0.40 0.35 0.24 0.25 0.26 0.36 0.57 0.37 0.50 0.40 0.25 0.42 0.28 0.27 0.40 0.33 0.28 0.31 0.37
0.19 0.20 0.22 0.28 0.34 0.40 0.44 0.47 0.52 0.41 0.33 0.26 0.22 0.32 0.33 0.32 0.49 0.27 0.25 0.26 0.31 0.46 0.53 0.54 0.30 0.32 0.34
0.21 0.26 0.34 0.34 0.36 0.34 0.40 0.56 0.62 0.45 0.43 0.40 0.34 0.39 0.44 0.41 0.38 0.38 0.38 0.33 0.35 0.38 0.38 0.79 0.50 0.30 0.23
0.61 0.60 0.59 0.59 0.55 0.47 0.46 0.53 0.51 0.56 0.60 0.56 0.69 0.87 0.93 0.53 0.37 0.42 0.74 0.55 0.36 0.40 0.44 0.58 0.68 0.50 0.44

GFSFLT2_prec_precacc_120.txt.gz
Total_Precipitation_Accumulation
1.01 0.92 0.87 0.79 0.83 0.81 0.73 0.61 0.57 0.74 0.62 0.60 0.56 0.50 0.51 0.50 0.49 0.49 0.48 0.49 0.54 0.61 0.67 0.78 0.83 0.90 0.94
1.08 1.05 1.02 0.96 0.94 0.94 0.89 0.83 0.76 0.92 0.80 0.58 0.42 0.31 0.30 0.28 0.30 0.33 0.36 0.39 0.42 0.45 0.46 0.47 0.48 0.50 0.64
1.25 1.08 1.01 0.98 1.02 0.99 0.94 0.90 0.84 0.98 0.85 0.69 0.66 0.58 0.45 0.41 0.37 0.32 0.26 0.22 0.19 0.17 0.17 0.18 0.23 0.32 0.36
1.04 0.78 0.61 0.57 0.67 0.62 0.56 0.51 0.49 0.56 0.62 0.53 0.54 0.51 0.48 0.42 0.37 0.29 0.22 0.20 0.17 0.14 0.13 0.14 0.15 0.21 0.24
1.03 0.78 0.53 0.35 0.29 0.26 0.33 0.31 0.34 0.33 0.31 0.32 0.31 0.25 0.22 0.23 0.20 0.23 0.26 0.30 0.32 0.35 0.34 0.31 0.30 0.30 0.30
0.85 0.71 0.56 0.51 0.57 0.61 0.61 0.57 0.46 0.19 0.15 0.12 0.12 0.10 0.12 0.14 0.19 0.19 0.18 0.20 0.23 0.29 0.37 0.39 0.37 0.35 0.35
0.28 0.20 0.21 0.26 0.42 0.54 0.55 0.51 0.40 0.23 0.32 0.29 0.16 0.07 0.04 0.09 0.15 0.10 0.12 0.14 0.15 0.20 0.34 0.38 0.43 0.45 0.42
0.20 0.27 0.38 0.42 0.53 0.69 0.59 0.51 0.46 0.35 0.32 0.32 0.13 0.12 0.06 0.05 0.11 0.07 0.10 0.11 0.13 0.16 0.22 0.29 0.42 0.50 0.53
0.24 0.30 0.32 0.33 0.32 0.40 0.58 0.68 0.65 0.41 0.31 0.31 0.19 0.17 0.15 0.11 0.10 0.11 0.07 0.08 0.09 0.12 0.15 0.18 0.21 0.27 0.28
0.05 0.08 0.11 0.16 0.23 0.23 0.30 0.55 0.44 0.45 0.29 0.47 0.37 0.36 0.61 0.27 0.16 0.16 0.13 0.14 0.13 0.11 0.10 0.11 0.16 0.16 0.16
0.05 0.07 0.07 0.09 0.11 0.12 0.13 0.39 0.62 0.46 0.21 0.68 0.75 0.41 0.66 0.36 0.17 0.23 0.21 0.19 0.20 0.17 0.14 0.16 0.21 0.26 0.38
0.04 0.07 0.10 0.10 0.10 0.10 0.12 0.14 0.21 0.38 0.21 0.38 0.89 0.39 0.63 0.47 0.22 0.18 0.28 0.25 0.25 0.24 0.21 0.27 0.28 0.32 0.36
0.10 0.09 0.08 0.08 0.14 0.21 0.23 0.21 0.22 0.20 0.21 0.16 0.38 0.36 0.57 0.65 0.40 0.15 0.30 0.30 0.24 0.31 0.36 0.41 0.38 0.34 0.38
0.16 0.15 0.20 0.31 0.33 0.29 0.34 0.35 0.40 0.35 0.24 0.25 0.26 0.37 0.57 0.37 0.51 0.40 0.25 0.43 0.28 0.28 0.45 0.44 0.36 0.35 0.39
0.19 0.20 0.22 0.28 0.34 0.40 0.44 0.47 0.53 0.41 0.33 0.26 0.22 0.32 0.33 0.33 0.50 0.28 0.25 0.27 0.32 0.46 0.55 0.60 0.40 0.39 0.36
0.21 0.26 0.34 0.34 0.36 0.34 0.40 0.56 0.62 0.45 0.43 0.40 0.34 0.39 0.45 0.42 0.39 0.38 0.39 0.34 0.35 0.38 0.39 0.82 0.56 0.36 0.30
0.61 0.60 0.59 0.59 0.55 0.48 0.46 0.53 0.52 0.56 0.60 0.56 0.70 0.89 0.97 0.55 0.38 0.42 0.74 0.55 0.37 0.41 0.45 0.59 0.70 0.52 0.49

GFSFLT2_prec_precacc_123.txt.gz
Total_Precipitation_Accumulation
1.01 0.92 0.87 0.79 0.83 0.81 0.73 0.61 0.57 0.74 0.63 0.61 0.57 0.50 0.52 0.52 0.51 0.50 0.48 0.49 0.56 0.67 0.76 0.90 0.97 1.00 1.01
1.08 1.05 1.02 0.96 0.94 0.94 0.89 0.83 0.76 0.92 0.80 0.58 0.42 0.32 0.31 0.31 0.34 0.37 0.39 0.42 0.45 0.50 0.52 0.55 0.58 0.61 0.72
1.25 1.08 1.01 0.98 1.02 0.99 0.94 0.90 0.84 0.98 0.85 0.69 0.67 0.60 0.49 0.46 0.42 0.37 0.28 0.23 0.22 0.22 0.26 0.29 0.32 0.41 0.42
1.04 0.78 0.61 0.57 0.67 0.62 0.56 0.51 0.49 0.56 0.62 0.53 0.54 0.52 0.50 0.47 0.45 0.44 0.40 0.35 0.27 0.18 0.18 0.22 0.26 0.31 0.31
1.03 0.78 0.53 0.35 0.29 0.26 0.33 0.31 0.34 0.33 0.31 0.32 0.31 0.26 0.23 0.26 0.25 0.32 0.38 0.45 0.51 0.54 0.46 0.37 0.36 0.36 0.36
0.85 0.71 0.56 0.51 0.57 0.61 0.61 0.57 0.47 0.19 0.15 0.12 0.12 0.11 0.13 0.19 0.30 0.32 0.29 0.30 0.33 0.41 0.48 0.49 0.47 0.42 0.41
0.28 0.20 0.21 0.26 0.42 0.54 0.55 0.51 0.40 0.23 0.32 0.30 0.16 0.08 0.04 0.12 0.23 0.21 0.25 0.25 0.26 0.29 0.41 0.42 0.47 0.51 0.50
0.20 0.27 0.38 0.42 0.53 0.69 0.59 0.51 0.46 0.35 0.32 0.32 0.13 0.12 0.06 0.05 0.12 0.09 0.16 0.20 0.23 0.26 0.30 0.33 0.44 0.53 0.61
0.24 0.30 0.32 0.33 0.32 0.40 0.58 0.68 0.65 0.41 0.31 0.31 0.19 0.17 0.15 0.11 0.10 0.12 0.07 0.10 0.13 0.18 0.20 0.20 0.23 0.30 0.34
0.05 0.08 0.11 0.16 0.23 0.23 0.30 0.55 0.44 0.45 0.29 0.47 0.37 0.36 0.61 0.27 0.16 0.16 0.13 0.14 0.13 0.12 0.13 0.13 0.18 0.19 0.19
0.06 0.07 0.07 0.09 0.11 0.12 0.13 0.39 0.62 0.46 0.21 0.68 0.75 0.41 0.67 0.36 0.17 0.23 0.21 0.19 0.20 0.18 0.17 0.21 0.27 0.31 0.40
0.04 0.07 0.10 0.10 0.10 0.10 0.12 0.14 0.21 0.38 0.21 0.38 0.89 0.39 0.63 0.48 0.23 0.18 0.28 0.25 0.25 0.24 0.22 0.34 0.36 0.43 0.49
0.10 0.09 0.08 0.08 0.14 0.21 0.23 0.21 0.22 0.20 0.21 0.16 0.38 0.36 0.58 0.67 0.40 0.15 0.30 0.30 0.24 0.31 0.36 0.43 0.42 0.38 0.45
0.17 0.16 0.21 0.31 0.33 0.29 0.34 0.35 0.40 0.35 0.24 0.25 0.26 0.37 0.58 0.38 0.52 0.41 0.25 0.43 0.28 0.28 0.45 0.45 0.41 0.40 0.42
0.20 0.20 0.22 0.28 0.34 0.40 0.44 0.47 0.53 0.41 0.33 0.26 0.22 0.32 0.33 0.33 0.50 0.29 0.26 0.27 0.32 0.46 0.55 0.60 0.43 0.44 0.41
0.21 0.26 0.34 0.34 0.36 0.34 0.41 0.56 0.62 0.45 0.43 0.40 0.34 0.39 0.45 0.42 0.39 0.38 0.39 0.34 0.35 0.38 0.40 0.83 0.56 0.38 0.35
0.61 0.60 0.59 0.59 0.56 0.48 0.46 0.53 0.52 0.56 0.61 0.56 0.70 0.89 0.98 0.55 0.38 0.42 0.74 0.55 0.37 0.41 0.46 0.60 0.71 0.53 0.50

GFSFLT2_prec_precacc_126.txt.gz
Total_Precipitation_Accumulation
1.01 0.92 0.87 0.79 0.83 0.81 0.73 0.61 0.57 0.74 0.63 0.61 0.57 0.51 0.52 0.52 0.51 0.51 0.49 0.50 0.56 0.67 0.77 0.92 1.03 1.10 1.14
1.08 1.05 1.02 0.96 0.94 0.94 0.89 0.83 0.76 0.92 0.80 0.58 0.42 0.32 0.31 0.31 0.35 0.37 0.40 0.44 0.47 0.50 0.52 0.55 0.59 0.64 0.83
1.25 1.08 1.01 0.98 1.02 0.99 0.94 0.90 0.84 0.98 0.85 0.69 0.67 0.60 0.49 0.46 0.42 0.37 0.28 0.24 0.24 0.26 0.30 0.31 0.33 0.42 0.47
1.04 0.78 0.61 0.57 0.67 0.62 0.56 0.51 0.49 0.56 0.62 0.53 0.54 0.52 0.50 0.47 0.45 0.44 0.40 0.37 0.29 0.21 0.20 0.24 0.29 0.34 0.37
1.03 0.78 0.53 0.35 0.29 0.26 0.33 0.31 0.34 0.33 0.31 0.32 0.31 0.26 0.23 0.26 0.25 0.32 0.40 0.47 0.54 0.59 0.55 0.47 0.41 0.41 0.41
0.85 0.71 0.56 0.51 0.57 0.61 0.61 0.57 0.47 0.19 0.15 0.12 0.12 0.11 0.13 0.19 0.30 0.33 0.31 0.33 0.37 0.46 0.58 0.60 0.59 0.57 0.55
0.28 0.20 0.21 0.26 0.42 0.54 0.55 0.51 0.40 0.23 0.32 0.30 0.16 0.08 0.04 0.12 0.23 0.22 0.29 0.31 0.34 0.38 0.52 0.59 0.65 0.69 0.67
0.20 0.27 0.38 0.42 0.53 0.69 0.59 0.51 0.46 0.35 0.32 0.32 0.13 0.12 0.06 0.05 0.12 0.10 0.17 0.23 0.29 0.35 0.41 0.47 0.59 0.68 0.75
0.24 0.30 0.33 0.34 0.32 0.40 0.58 0.68 0.65 0.41 0.31 0.31 0.19 0.17 0.15 0.11 0.10 0.12 0.07 0.10 0.14 0.22 0.29 0.34 0.38 0.44 0.44
0.05 0.08 0.11 0.16 0.23 0.23 0.30 0.55 0.44 0.45 0.29 0.47 0.37 0.36 0.61 0.27 0.16 0.16 0.13 0.14 0.13 0.13 0.15 0.21 0.34 0.34 0.29
0.06 0.07 0.07 0.09 0.11 0.12 0.13 0.39 0.62 0.47 0.21 0.69 0.75 0.41 0.67 0.36 0.17 0.23 0.21 0.19 0.20 0.18 0.17 0.22 0.34 0.44 0.50
0.04 0.07 0.10 0.10 0.10 0.10 0.12 0.14 0.21 0.38 0.21 0.38 0.89 0.39 0.63 0.48 0.23 0.18 0.28 0.25 0.25 0.25 0.22 0.34 0.37 0.49 0.60
0.10 0.09 0.08 0.08 0.14 0.21 0.23 0.21 0.22 0.20 0.21 0.16 0.38 0.36 0.58 0.68 0.41 0.15 0.30 0.30 0.24 0.31 0.36 0.43 0.42 0.40 0.52
0.18 0.16 0.21 0.31 0.33 0.29 0.34 0.35 0.40 0.35 0.24 0.25 0.26 0.37 0.58 0.38 0.53 0.42 0.25 0.43 0.28 0.28 0.45 0.45 0.41 0.40 0.45
0.20 0.20 0.22 0.28 0.34 0.40 0.44 0.47 0.53 0.41 0.33 0.26 0.22 0.32 0.34 0.33 0.51 0.29 0.26 0.27 0.32 0.46 0.55 0.60 0.43 0.45 0.42
0.21 0.26 0.34 0.34 0.36 0.34 0.41 0.56 0.63 0.46 0.44 0.40 0.35 0.39 0.45 0.42 0.39 0.38 0.39 0.34 0.35 0.38 0.40 0.83 0.56 0.38 0.35
0.61 0.60 0.59 0.59 0.56 0.48 0.47 0.53 0.53 0.56 0.61 0.56 0.70 0.90 1.00 0.56 0.38 0.42 0.74 0.55 0.37 0.41 0.46 0.60 0.71 0.53 0.51

GFSFLT2_prec_precacc_129.txt.gz
Total_Precipitation_Accumulation
1.05 0.96 0.91 0.83 0.85 0.81 0.73 0.61 0.57 0.74 0.63 0.61 0.57 0.51 0.52 0.52 0.51 0.51 0.49 0.50 0.57 0.67 0.77 0.93 1.05 1.14 1.17
1.08 1.05 1.02 0.96 0.94 0.94 0.89 0.83 0.76 0.92 0.80 0.58 0.42 0.32 0.31 0.31 0.35 0.37 0.40 0.44 0.47 0.51 0.52 0.55 0.59 0.66 0.86
1.25 1.08 1.01 0.98 1.02 0.99 0.94 0.90 0.84 0.98 0.85 0.69 0.67 0.60 0.49 0.46 0.42 0.37 0.28 0.24 0.24 0.26 0.31 0.31 0.34 0.43 0.47
1.04 0.78 0.61 0.57 0.67 0.62 0.56 0.51 0.49 0.56 0.62 0.53 0.54 0.52 0.50 0.47 0.45 0.44 0.40 0.37 0.29 0.21 0.20 0.24 0.30 0.38 0.40
1.03 0.78 0.53 0.35 0.29 0.26 0.33 0.31 0.34 0.33 0.31 0.32 0.31 0.26 0.23 0.26 0.25 0.32 0.40 0.47 0.54 0.59 0.55 0.47 0.42 0.41 0.42
0.85 0.71 0.56 0.51 0.57 0.61 0.61 0.57 0.47 0.19 0.15 0.12 0.12 0.11 0.13 0.19 0.30 0.33 0.31 0.34 0.37 0.46 0.58 0.60 0.60 0.58 0.58
0.28 0.20 0.21 0.26 0.42 0.54 0.55 0.51 0.40 0.23 0.32 0.30 0.16 0.08 0.04 0.12 0.23 0.22 0.29 0.32 0.34 0.38 0.52 0.60 0.66 0.72 0.71
0.20 0.27 0.38 0.42 0.54 0.69 0.59 0.51 0.46 0.35 0.32 0.32 0.13 0.12 0.06 0.05 0.12 0.10 0.17 0.23 0.29 0.35 0.41 0.47 0.61 0.72 0.82
0.24 0.30 0.33 0.34 0.33 0.41 0.59 0.68 0.65 0.41 0.31 0.31 0.19 0.17 0.15 0.11 0.10 0.12 0.07 0.10 0.14 0.22 0.29 0.35 0.38 0.45 0.46
0.05 0.08 0.11 0.16 0.23 0.23 0.30 0.55 0.44 0.45 0.29 0.47 0.37 0.36 0.61 0.27 0.16 0.16 0.13 0.14 0.13 0.13 0.15 0.21 0.34 0.35 0.31
0.06 0.07 0.07 0.09 0.11 0.12 0.13 0.39 0.62 0.47 0.21 0.69 0.75 0.41 0.67 0.36 0.17 0.23 0.21 0.19 0.20 0.18 0.17 0.22 0.35 0.45 0.53
0.04 0.07 0.10 0.10 0.10 0.10 0.12 0.14 0.21 0.38 0.21 0.38 0.89 0.39 0.63 0.49 0.23 0.18 0.28 0.25 0.25 0.25 0.22 0.34 0.37 0.49 0.61
0.10 0.09 0.08 0.08 0.14 0.21 0.23 0.21 0.22 0.20 0.21 0.16 0.38 0.36 0.58 0.68 0.41 0.15 0.30 0.30 0.24 0.31 0.36 0.43 0.42 0.40 0.52
0.18 0.16 0.21 0.31 0.33 0.29 0.34 0.35 0.40 0.35 0.24 0.25 0.26 0.37 0.58 0.38 0.54 0.42 0.25 0.43 0.28 0.28 0.45 0.45 0.41 0.40 0.45
0.20 0.20 0.22 0.28 0.34 0.40 0.44 0.47 0.53 0.41 0.33 0.26 0.22 0.32 0.34 0.33 0.52 0.29 0.26 0.27 0.32 0.46 0.55 0.60 0.43 0.45 0.42
0.21 0.26 0.34 0.34 0.36 0.34 0.41 0.57 0.63 0.46 0.44 0.40 0.35 0.40 0.45 0.42 0.39 0.38 0.39 0.34 0.35 0.38 0.40 0.83 0.56 0.38 0.35
0.61 0.60 0.60 0.59 0.56 0.48 0.47 0.54 0.53 0.56 0.61 0.56 0.70 0.90 1.00 0.56 0.38 0.42 0.74 0.55 0.37 0.41 0.46 0.60 0.71 0.53 0.51

GFSFLT2_prec_precacc_132.txt.gz
Total_Precipitation_Accumulation
1.05 0.96 0.91 0.84 0.86 0.83 0.75 0.63 0.59 0.77 0.66 0.63 0.58 0.51 0.52 0.52 0.51 0.51 0.49 0.50 0.57 0.67 0.77 0.93 1.05 1.14 1.18
1.08 1.05 1.02 0.96 0.95 0.94 0.89 0.83 0.76 0.92 0.81 0.58 0.42 0.32 0.31 0.31 0.35 0.37 0.40 0.44 0.47 0.51 0.52 0.55 0.59 0.67 0.86
1.25 1.08 1.01 0.98 1.02 0.99 0.94 0.90 0.84 0.98 0.85 0.69 0.67 0.60 0.49 0.46 0.42 0.37 0.28 0.24 0.24 0.26 0.31 0.32 0.34 0.43 0.47
1.04 0.78 0.61 0.57 0.67 0.62 0.56 0.51 0.49 0.56 0.62 0.53 0.54 0.52 0.50 0.47 0.45 0.44 0.40 0.37 0.29 0.21 0.20 0.25 0.30 0.38 0.40
1.03 0.78 0.53 0.35 0.29 0.26 0.33 0.31 0.34 0.33 0.31 0.32 0.31 0.26 0.23 0.26 0.25 0.32 0.40 0.47 0.55 0.59 0.56 0.47 0.42 0.41 0.42
0.85 0.71 0.56 0.51 0.57 0.61 0.61 0.57 0.47 0.19 0.15 0.12 0.12 0.11 0.13 0.19 0.30 0.33 0.31 0.34 0.37 0.47 0.58 0.60 0.60 0.58 0.58
0.28 0.20 0.21 0.26 0.42 0.54 0.55 0.51 0.40 0.23 0.32 0.30 0.16 0.08 0.04 0.12 0.23 0.22 0.29 0.32 0.34 0.38 0.52 0.60 0.66 0.72 0.71
0.20 0.27 0.38 0.42 0.54 0.70 0.60 0.52 0.46 0.35 0.32 0.32 0.13 0.12 0.06 0.05 0.12 0.10 0.17 0.23 0.29 0.35 0.41 0.47 0.61 0.72 0.82
0.24 0.30 0.34 0.35 0.33 0.42 0.60 0.69 0.65 0.41 0.31 0.31 0.19 0.17 0.15 0.11 0.10 0.12 0.07 0.10 0.14 0.22 0.29 0.35 0.38 0.45 0.46
0.06 0.08 0.11 0.16 0.23 0.23 0.30 0.55 0.44 0.46 0.29 0.47 0.37 0.36 0.61 0.27 0.16 0.16 0.13 0.14 0.13 0.13 0.15 0.21 0.34 0.35 0.31
0.06 0.07 0.07 0.09 0.11 0.12 0.13 0.39 0.62 0.47 0.21 0.69 0.75 0.41 0.67 0.36 0.17 0.23 0.21 0.19 0.20 0.18 0.17 0.22 0.35 0.45 0.53
0.04 0.07 0.10 0.10 0.10 0.10 0.12 0.14 0.21 0.38 0.21 0.39 0.90 0.39 0.64 0.49 0.23 0.18 0.28 0.25 0.25 0.25 0.22 0.34 0.37 0.49 0.61
0.10 0.09 0.08 0.08 0.14 0.21 0.23 0.21 0.22 0.20 0.21 0.16 0.38 0.36 0.59 0.69 0.42 0.15 0.30 0.30 0.24 0.31 0.36 0.43 0.42 0.40 0.52
0.18 0.16 0.21 0.31 0.33 0.29 0.34 0.35 0.40 0.35 0.24 0.25 0.26 0.37 0.59 0.39 0.54 0.42 0.25 0.43 0.28 0.28 0.45 0.45 0.41 0.40 0.45
0.20 0.20 0.22 0.28 0.34 0.40 0.44 0.47 0.53 0.41 0.33 0.26 0.22 0.32 0.34 0.34 0.53 0.29 0.26 0.27 0.32 0.47 0.55 0.60 0.43 0.45 0.42
0.21 0.26 0.34 0.34 0.37 0.35 0.41 0.57 0.64 0.46 0.44 0.41 0.35 0.40 0.46 0.42 0.40 0.38 0.39 0.34 0.35 0.38 0.40 0.83 0.57 0.38 0.35
0.61 0.60 0.60 0.60 0.56 0.49 0.47 0.54 0.53 0.56 0.61 0.56 0.70 0.91 1.02 0.56 0.38 0.42 0.74 0.55 0.37 0.42 0.46 0.60 0.71 0.53 0.51

GFSFLT2_prec_precacc_135.txt.gz
Total_Precipitation_Accumulation
1.05 0.96 0.91 0.84 0.86 0.83 0.75 0.63 0.59 0.77 0.68 0.66 0.62 0.57 0.60 0.60 0.57 0.56 0.52 0.51 0.57 0.67 0.77 0.93 1.06 1.15 1.19
1.08 1.05 1.02 0.96 0.95 0.94 0.89 0.83 0.76 0.92 0.81 0.58 0.42 0.32 0.31 0.32 0.36 0.38 0.40 0.44 0.47 0.51 0.52 0.55 0.59 0.67 0.87
1.25 1.08 1.01 0.98 1.02 0.99 0.94 0.90 0.84 0.98 0.85 0.69 0.67 0.60 0.49 0.46 0.43 0.37 0.28 0.24 0.24 0.26 0.31 0.32 0.34 0.43 0.47
1.04 0.78 0.61 0.57 0.67 0.62 0.56 0.51 0.49 0.56 0.62 0.53 0.54 0.52 0.50 0.47 0.45 0.44 0.40 0.37 0.29 0.21 0.20 0.25 0.30 0.38 0.40
1.03 0.78 0.53 0.35 0.29 0.26 0.33 0.31 0.34 0.33 0.31 0.32 0.31 0.26 0.23 0.26 0.25 0.32 0.40 0.47 0.55 0.59 0.56 0.47 0.42 0.41 0.42
0.85 0.71 0.56 0.51 0.57 0.61 0.61 0.57 0.47 0.19 0.15 0.12 0.12 0.11 0.13 0.19 0.30 0.33 0.31 0.34 0.37 0.47 0.58 0.60 0.60 0.58 0.58
0.28 0.20 0.21 0.26 0.42 0.54 0.55 0.52 0.41 0.23 0.32 0.30 0.16 0.08 0.04 0.12 0.23 0.22 0.29 0.32 0.34 0.38 0.52 0.60 0.66 0.72 0.71
0.20 0.27 0.38 0.42 0.55 0.71 0.61 0.53 0.46 0.35 0.32 0.32 0.13 0.12 0.06 0.05 0.12 0.10 0.17 0.23 0.29 0.35 0.41 0.47 0.61 0.72 0.82
0.24 0.30 0.34 0.36 0.34 0.43 0.60 0.69 0.66 0.41 0.31 0.31 0.19 0.17 0.15 0.11 0.10 0.12 0.07 0.10 0.14 0.22 0.29 0.35 0.38 0.45 0.46
0.06 0.08 0.11 0.16 0.23 0.23 0.30 0.56 0.44 0.46 0.29 0.47 0.37 0.36 0.61 0.27 0.16 0.16 0.13 0.14 0.13 0.13 0.15 0.21 0.34 0.35 0.31
0.06 0.07 0.07 0.09 0.11 0.12 0.13 0.39 0.62 0.47 0.21 0.69 0.76 0.41 0.67 0.37 0.17 0.23 0.21 0.19 0.20 0.18 0.17 0.22 0.35 0.45 0.53
0.04 0.07 0.10 0.10 0.10 0.10 0.12 0.14 0.21 0.39 0.21 0.39 0.91 0.40 0.65 0.50 0.23 0.18 0.28 0.25 0.25 0.25 0.22 0.34 0.37 0.49 0.61
0.10 0.09 0.08 0.08 0.14 0.21 0.23 0.22 0.22 0.20 0.21 0.16 0.39 0.37 0.60 0.70 0.42 0.15 0.30 0.30 0.24 0.31 0.36 0.43 0.42 0.40 0.52
0.18 0.16 0.21 0.31 0.33 0.29 0.35 0.35 0.41 0.35 0.24 0.25 0.26 0.37 0.60 0.39 0.55 0.43 0.25 0.43 0.28 0.28 0.45 0.45 0.41 0.40 0.45
0.20 0.20 0.22 0.28 0.34 0.40 0.45 0.47 0.54 0.41 0.34 0.26 0.22 0.33 0.34 0.34 0.54 0.30 0.26 0.27 0.32 0.47 0.55 0.60 0.43 0.45 0.42
0.21 0.26 0.35 0.35 0.37 0.35 0.41 0.57 0.64 0.46 0.44 0.41 0.35 0.40 0.46 0.42 0.40 0.39 0.39 0.34 0.35 0.39 0.40 0.84 0.57 0.38 0.35
0.62 0.60 0.60 0.60 0.57 0.49 0.47 0.55 0.54 0.57 0.61 0.56 0.71 0.93 1.04 0.57 0.38 0.42 0.74 0.55 0.37 0.42 0.46 0.61 0.71 0.53 0.51